| time (UTC) | temp F | wind direction | speed MPH | gust MPH | rain 1hr in | rain 24hr in | rain mn in | humidity % | barometer mb |
| 20260903202728 | 81 | 4 | 6.0 | 9.0 | 0.00 | 0.14 | 0.14 | 88 | 1011.6 |
| 20260903202627 | 81 | 16 | 6.0 | 9.0 | 0.00 | 0.14 | 0.14 | 88 | 1011.6 |
| 20260903202528 | 81 | 1 | 5.0 | 9.0 | 0.00 | 0.14 | 0.14 | 88 | 1011.5 |
| 20260903202427 | 81 | 355 | 5.0 | 9.0 | 0.00 | 0.14 | 0.14 | 87 | 1011.5 |
| 20260903202327 | 81 | 1 | 6.0 | 9.0 | 0.00 | 0.14 | 0.14 | 87 | 1011.5 |
| 20260903202229 | 81 | 0 | 5.0 | 7.0 | 0.00 | 0.14 | 0.14 | 87 | 1011.5 |
| 20260903202129 | 81 | 0 | 4.0 | 7.0 | 0.00 | 0.14 | 0.14 | 87 | 1011.5 |
| 20260903202027 | 81 | 0 | 3.0 | 7.0 | 0.00 | 0.14 | 0.14 | 87 | 1011.5 |
| 20260903201927 | 81 | 0 | 3.0 | 7.0 | 0.00 | 0.14 | 0.14 | 87 | 1011.6 |
| 20260903201829 | 81 | 0 | 4.0 | 7.0 | 0.00 | 0.14 | 0.14 | 87 | 1011.5 |
| 20260903201727 | 81 | 3 | 4.0 | 7.0 | 0.00 | 0.14 | 0.14 | 87 | 1011.6 |
| 20260903201627 | 81 | 0 | 5.0 | 7.0 | 0.00 | 0.14 | 0.14 | 87 | 1011.5 |
| 20260903201528 | 81 | 24 | 5.0 | 7.0 | 0.00 | 0.14 | 0.14 | 87 | 1011.6 |
| 20260903201426 | 81 | 4 | 4.0 | 7.0 | 0.00 | 0.14 | 0.14 | 87 | 1011.6 |
| 20260903201326 | 81 | 0 | 3.0 | 7.0 | 0.00 | 0.14 | 0.14 | 87 | 1011.6 |
| 20260903201227 | 81 | 0 | 4.0 | 7.0 | 0.00 | 0.14 | 0.14 | 86 | 1011.6 |
| 20260903201129 | 81 | 0 | 4.0 | 7.0 | 0.00 | 0.14 | 0.14 | 86 | 1011.6 |
| 20260903201027 | 81 | 10 | 4.0 | 7.0 | 0.00 | 0.14 | 0.14 | 86 | 1011.6 |
| 20260903200927 | 81 | 17 | 5.0 | 7.0 | 0.00 | 0.14 | 0.14 | 86 | 1011.6 |
| 20260903200827 | 81 | 1 | 5.0 | 7.0 | 0.00 | 0.14 | 0.14 | 86 | 1011.7 |
| 20260903200727 | 81 | 24 | 5.0 | 7.0 | 0.00 | 0.14 | 0.14 | 85 | 1011.7 |
| 20260903200625 | 81 | 30 | 6.0 | 7.0 | 0.00 | 0.14 | 0.14 | 85 | 1011.7 |
| 20260903200523 | 81 | 3 | 5.0 | 7.0 | 0.00 | 0.14 | 0.14 | 85 | 1011.8 |
| 20260903200423 | 81 | 21 | 4.0 | 7.0 | 0.00 | 0.14 | 0.14 | 84 | 1011.7 |
| 20260903200318 | 81 | 18 | 4.0 | 7.0 | 0.00 | 0.14 | 0.14 | 84 | 1011.8 |
| 20260903200215 | 81 | 13 | 4.0 | 7.0 | 0.00 | 0.14 | 0.14 | 84 | 1011.7 |
| 20260903200113 | 81 | 8 | 4.0 | 7.0 | 0.00 | 0.14 | 0.14 | 84 | 1011.8 |
| 20260903200014 | 81 | 10 | 4.0 | 7.0 | 0.00 | 0.14 | 0.14 | 83 | 1011.5 |
| 20260903195916 | 81 | 0 | 4.0 | 7.0 | 0.00 | 0.14 | 0.14 | 83 | 1011.6 |
| 20260903195812 | 81 | 0 | 3.0 | 7.0 | 0.00 | 0.14 | 0.14 | 83 | 1011.6 |
| 20260903195712 | 81 | 327 | 4.0 | 9.0 | 0.00 | 0.14 | 0.14 | 82 | 1011.4 |
| 20260903195610 | 81 | 354 | 4.0 | 9.0 | 0.00 | 0.14 | 0.14 | 82 | 1011.5 |
| 20260903195508 | 81 | 333 | 3.0 | 9.0 | 0.00 | 0.14 | 0.14 | 82 | 1011.5 |
| 20260903195407 | 80 | 329 | 4.0 | 9.0 | 0.00 | 0.14 | 0.14 | 82 | 1011.6 |
| 20260903195306 | 80 | 336 | 4.0 | 9.0 | 0.00 | 0.14 | 0.14 | 83 | 1011.5 |
| 20260903195204 | 80 | 353 | 4.0 | 9.0 | 0.00 | 0.14 | 0.14 | 83 | 1011.6 |
| 20260903195103 | 80 | 357 | 5.0 | 9.0 | 0.00 | 0.14 | 0.14 | 83 | 1011.5 |
| 20260903195002 | 80 | 0 | 5.0 | 9.0 | 0.00 | 0.14 | 0.14 | 83 | 1011.6 |
| 20260903194903 | 80 | 350 | 6.0 | 9.0 | 0.00 | 0.14 | 0.14 | 83 | 1011.6 |
| 20260903194804 | 80 | 324 | 6.0 | 9.0 | 0.00 | 0.14 | 0.14 | 83 | 1011.6 |
| 20260903194703 | 80 | 345 | 5.0 | 9.0 | 0.00 | 0.14 | 0.14 | 84 | 1011.6 |
| 20260903194603 | 80 | 333 | 4.0 | 7.0 | 0.00 | 0.14 | 0.14 | 84 | 1011.7 |
| 20260903194504 | 80 | 341 | 3.0 | 7.0 | 0.00 | 0.14 | 0.14 | 84 | 1011.7 |
| 20260903194403 | 80 | 327 | 4.0 | 7.0 | 0.00 | 0.14 | 0.14 | 84 | 1011.7 |
| 20260903194301 | 80 | 1 | 5.0 | 9.0 | 0.00 | 0.14 | 0.14 | 84 | 1011.8 |
| 20260903194202 | 80 | 341 | 5.0 | 9.0 | 0.00 | 0.14 | 0.14 | 84 | 1011.7 |
| 20260903194103 | 80 | 350 | 4.0 | 9.0 | 0.00 | 0.14 | 0.14 | 84 | 1011.7 |
| 20260903194004 | 80 | 340 | 5.0 | 9.0 | 0.00 | 0.14 | 0.14 | 84 | 1011.7 |
| 20260903193903 | 80 | 340 | 5.0 | 9.0 | 0.00 | 0.14 | 0.14 | 84 | 1011.7 |
| 20260903193804 | 80 | 340 | 5.0 | 9.0 | 0.00 | 0.14 | 0.14 | 84 | 1011.8 |
| 20260903193704 | 80 | 340 | 5.0 | 9.0 | 0.00 | 0.14 | 0.14 | 84 | 1011.8 |
| 20260903193556 | 80 | 333 | 5.0 | 9.0 | 0.00 | 0.14 | 0.14 | 84 | 1011.8 |
| 20260903193455 | 80 | 357 | 5.0 | 9.0 | 0.00 | 0.14 | 0.14 | 84 | 1011.9 |
| 20260903193353 | 80 | 350 | 4.0 | 9.0 | 0.00 | 0.14 | 0.14 | 84 | 1011.9 |
| 20260903193251 | 80 | 0 | 4.0 | 6.0 | 0.00 | 0.14 | 0.14 | 84 | 1011.9 |
| 20260903193149 | 80 | 330 | 4.0 | 6.0 | 0.00 | 0.14 | 0.14 | 84 | 1011.9 |
| 20260903193048 | 80 | 0 | 5.0 | 6.0 | 0.00 | 0.14 | 0.14 | 84 | 1012.0 |
| 20260903192942 | 80 | 334 | 5.0 | 6.0 | 0.00 | 0.14 | 0.14 | 84 | 1012.0 |
| 20260903192841 | 80 | 348 | 5.0 | 6.0 | 0.00 | 0.14 | 0.14 | 84 | 1011.8 |
| 20260903192739 | 80 | 296 | 4.0 | 6.0 | 0.00 | 0.14 | 0.14 | 84 | 1011.9 |
| 20260903192638 | 80 | 306 | 4.0 | 6.0 | 0.00 | 0.14 | 0.14 | 84 | 1011.9 |
| 20260903192538 | 81 | 303 | 4.0 | 6.0 | 0.00 | 0.14 | 0.14 | 84 | 1011.9 |
| 20260903192435 | 80 | 300 | 4.0 | 6.0 | 0.00 | 0.14 | 0.14 | 84 | 1011.8 |
| 20260903192335 | 81 | 305 | 4.0 | 7.0 | 0.00 | 0.14 | 0.14 | 84 | 1011.9 |
| 20260903192231 | 80 | 329 | 5.0 | 7.0 | 0.00 | 0.14 | 0.14 | 84 | 1011.8 |
| 20260903192132 | 80 | 327 | 4.0 | 7.0 | 0.00 | 0.14 | 0.14 | 84 | 1011.8 |
| 20260903192030 | 80 | 323 | 4.0 | 7.0 | 0.00 | 0.14 | 0.14 | 84 | 1011.8 |
| 20260903191932 | 80 | 312 | 3.0 | 7.0 | 0.00 | 0.14 | 0.14 | 84 | 1011.8 |
| 20260903191831 | 80 | 336 | 3.0 | 7.0 | 0.00 | 0.14 | 0.14 | 84 | 1011.8 |
| 20260903191731 | 80 | 329 | 4.0 | 7.0 | 0.00 | 0.14 | 0.14 | 84 | 1011.7 |
| 20260903191631 | 80 | 329 | 4.0 | 7.0 | 0.00 | 0.14 | 0.14 | 84 | 1011.7 |
| 20260903191532 | 80 | 310 | 4.0 | 7.0 | 0.00 | 0.14 | 0.14 | 84 | 1011.8 |
| 20260903191431 | 80 | 341 | 4.0 | 9.0 | 0.00 | 0.14 | 0.14 | 84 | 1011.7 |
| 20260903191331 | 80 | 333 | 4.0 | 9.0 | 0.00 | 0.14 | 0.14 | 85 | 1011.7 |
| 20260903191231 | 80 | 331 | 5.0 | 10.0 | 0.00 | 0.14 | 0.14 | 85 | 1011.7 |
| 20260903191130 | 80 | 333 | 5.0 | 10.0 | 0.00 | 0.14 | 0.14 | 85 | 1011.8 |
| 20260903191028 | 80 | 4 | 4.0 | 10.0 | 0.00 | 0.14 | 0.14 | 86 | 1011.7 |
| 20260903190928 | 80 | 0 | 4.0 | 10.0 | 0.00 | 0.14 | 0.14 | 86 | 1011.7 |
| 20260903190825 | 80 | 0 | 4.0 | 10.0 | 0.00 | 0.14 | 0.14 | 86 | 1011.7 |
| 20260903190725 | 80 | 0 | 5.0 | 10.0 | 0.00 | 0.14 | 0.14 | 86 | 1011.8 |
| 20260903190626 | 80 | 333 | 6.0 | 10.0 | 0.00 | 0.14 | 0.14 | 87 | 1011.8 |
| 20260903190527 | 80 | 345 | 6.0 | 10.0 | 0.00 | 0.14 | 0.14 | 87 | 1011.8 |
| 20260903190425 | 80 | 327 | 5.0 | 10.0 | 0.00 | 0.14 | 0.14 | 87 | 1011.8 |
| 20260903190325 | 80 | 0 | 5.0 | 10.0 | 0.00 | 0.14 | 0.14 | 87 | 1011.8 |
| 20260903190227 | 80 | 0 | 5.0 | 10.0 | 0.00 | 0.14 | 0.14 | 87 | 1011.8 |
| 20260903190126 | 80 | 3 | 6.0 | 10.0 | 0.00 | 0.14 | 0.14 | 87 | 1011.9 |
| 20260903190026 | 80 | 354 | 5.0 | 10.0 | 0.00 | 0.14 | 0.14 | 87 | 1011.9 |
| 20260903185925 | 80 | 0 | 6.0 | 10.0 | 0.00 | 0.14 | 0.14 | 87 | 1011.9 |
| 20260903185827 | 80 | 355 | 6.0 | 10.0 | 0.00 | 0.14 | 0.14 | 87 | 1012.0 |
| 20260903185726 | 81 | 11 | 6.0 | 10.0 | 0.00 | 0.14 | 0.14 | 87 | 1011.9 |
| 20260903185625 | 81 | 4 | 6.0 | 10.0 | 0.00 | 0.14 | 0.14 | 86 | 1011.9 |
| 20260903185527 | 81 | 31 | 6.0 | 10.0 | 0.00 | 0.14 | 0.14 | 86 | 1011.9 |
| 20260903185425 | 81 | 16 | 5.0 | 10.0 | 0.00 | 0.14 | 0.14 | 86 | 1011.9 |
| 20260903185326 | 81 | 18 | 6.0 | 10.0 | 0.00 | 0.14 | 0.14 | 86 | 1012.0 |
| 20260903185226 | 81 | 11 | 7.0 | 10.0 | 0.00 | 0.14 | 0.14 | 86 | 1012.0 |
| 20260903185126 | 81 | 16 | 6.0 | 9.0 | 0.00 | 0.14 | 0.14 | 86 | 1012.0 |
| 20260903185025 | 81 | 4 | 4.0 | 9.0 | 0.00 | 0.14 | 0.14 | 85 | 1012.0 |
| 20260903184925 | 81 | 348 | 4.0 | 9.0 | 0.00 | 0.14 | 0.14 | 85 | 1012.1 |
| 20260903184827 | 81 | 334 | 4.0 | 9.0 | 0.00 | 0.14 | 0.14 | 85 | 1012.1 |
| 20260903184725 | 81 | 358 | 4.0 | 7.0 | 0.00 | 0.14 | 0.14 | 85 | 1012.1 |
| 20260903184625 | 81 | 338 | 4.0 | 7.0 | 0.00 | 0.14 | 0.14 | 84 | 1012.2 |
| 20260903184526 | 81 | 355 | 4.0 | 10.0 | 0.00 | 0.14 | 0.14 | 84 | 1012.1 |
| 20260903184425 | 81 | 0 | 4.0 | 10.0 | 0.00 | 0.14 | 0.14 | 84 | 1012.1 |
| 20260903184325 | 81 | 350 | 4.0 | 10.0 | 0.00 | 0.14 | 0.14 | 84 | 1012.2 |
| 20260903184225 | 81 | 0 | 4.0 | 10.0 | 0.00 | 0.14 | 0.14 | 84 | 1012.2 |
| 20260903184126 | 81 | 331 | 3.0 | 10.0 | 0.00 | 0.14 | 0.14 | 84 | 1012.3 |
| 20260903184026 | 81 | 336 | 4.0 | 10.0 | 0.00 | 0.14 | 0.14 | 84 | 1012.3 |
| 20260903183925 | 81 | 348 | 5.0 | 10.0 | 0.00 | 0.14 | 0.14 | 83 | 1012.4 |
| 20260903183826 | 81 | 305 | 6.0 | 10.0 | 0.00 | 0.14 | 0.14 | 83 | 1012.4 |
| 20260903183725 | 81 | 276 | 7.0 | 10.0 | 0.00 | 0.14 | 0.14 | 83 | 1012.4 |
| 20260903183625 | 81 | 307 | 6.0 | 10.0 | 0.00 | 0.14 | 0.14 | 84 | 1012.4 |
| 20260903183524 | 81 | 292 | 5.0 | 10.0 | 0.00 | 0.14 | 0.14 | 84 | 1012.5 |
| 20260903183426 | 81 | 302 | 5.0 | 10.0 | 0.00 | 0.14 | 0.14 | 84 | 1012.6 |
| 20260903183325 | 81 | 293 | 6.0 | 10.0 | 0.00 | 0.14 | 0.14 | 84 | 1012.5 |
| 20260903183225 | 81 | 300 | 6.0 | 11.0 | 0.00 | 0.14 | 0.14 | 84 | 1012.6 |
| 20260903183125 | 81 | 289 | 6.0 | 11.0 | 0.00 | 0.14 | 0.14 | 84 | 1012.6 |
| 20260903183026 | 81 | 302 | 5.0 | 11.0 | 0.00 | 0.14 | 0.14 | 85 | 1012.5 |
| 20260903182924 | 81 | 296 | 6.0 | 11.0 | 0.00 | 0.14 | 0.14 | 85 | 1012.5 |
| 20260903182824 | 81 | 309 | 6.0 | 11.0 | 0.00 | 0.14 | 0.14 | 85 | 1012.5 |
| 20260903182725 | 81 | 279 | 6.0 | 11.0 | 0.00 | 0.14 | 0.14 | 85 | 1012.4 |
| 20260903182625 | 81 | 288 | 5.0 | 11.0 | 0.00 | 0.14 | 0.14 | 85 | 1012.4 |
| 20260903182524 | 81 | 299 | 4.0 | 11.0 | 0.00 | 0.14 | 0.14 | 84 | 1012.4 |
| 20260903182426 | 81 | 288 | 6.0 | 11.0 | 0.00 | 0.14 | 0.14 | 84 | 1012.4 |
| 20260903182325 | 81 | 295 | 6.0 | 11.0 | 0.00 | 0.14 | 0.14 | 84 | 1012.3 |
| 20260903182224 | 81 | 278 | 5.0 | 11.0 | 0.00 | 0.14 | 0.14 | 84 | 1012.2 |
| 20260903182125 | 81 | 305 | 5.0 | 11.0 | 0.00 | 0.14 | 0.14 | 84 | 1012.1 |
| 20260903182026 | 81 | 283 | 6.0 | 11.0 | 0.00 | 0.14 | 0.14 | 84 | 1012.1 |
| 20260903181925 | 81 | 300 | 6.0 | 11.0 | 0.00 | 0.14 | 0.14 | 83 | 1012.0 |
| 20260903181825 | 81 | 292 | 6.0 | 11.0 | 0.00 | 0.14 | 0.14 | 84 | 1012.0 |
| 20260903181726 | 81 | 299 | 7.0 | 11.0 | 0.00 | 0.14 | 0.14 | 84 | 1012.1 |
| 20260903181624 | 81 | 302 | 7.0 | 11.0 | 0.00 | 0.14 | 0.14 | 84 | 1012.0 |
| 20260903181524 | 82 | 290 | 8.0 | 11.0 | 0.00 | 0.14 | 0.14 | 84 | 1012.0 |
| 20260903181424 | 81 | 290 | 8.0 | 11.0 | 0.00 | 0.14 | 0.14 | 84 | 1012.1 |
| 20260903181325 | 82 | 272 | 6.0 | 11.0 | 0.00 | 0.14 | 0.14 | 84 | 1012.1 |
| 20260903181225 | 82 | 298 | 6.0 | 11.0 | 0.00 | 0.14 | 0.14 | 84 | 1012.2 |
| 20260903181125 | 81 | 327 | 6.0 | 13.0 | 0.00 | 0.14 | 0.14 | 84 | 1012.2 |
| 20260903181026 | 81 | 295 | 6.0 | 15.0 | 0.00 | 0.14 | 0.14 | 83 | 1012.2 |
| 20260903180924 | 81 | 300 | 5.0 | 15.0 | 0.00 | 0.14 | 0.14 | 83 | 1012.3 |
| 20260903180825 | 82 | 299 | 5.0 | 15.0 | 0.00 | 0.14 | 0.14 | 83 | 1012.3 |
| 20260903180725 | 82 | 320 | 6.0 | 15.0 | 0.00 | 0.14 | 0.14 | 83 | 1012.4 |
| 20260903180624 | 82 | 303 | 7.0 | 15.0 | 0.00 | 0.14 | 0.14 | 82 | 1012.3 |
| 20260903180524 | 82 | 289 | 8.0 | 15.0 | 0.00 | 0.14 | 0.14 | 82 | 1012.4 |
| 20260903180424 | 82 | 300 | 8.0 | 15.0 | 0.00 | 0.14 | 0.14 | 81 | 1012.4 |
| 20260903180325 | 82 | 310 | 9.0 | 15.0 | 0.00 | 0.14 | 0.14 | 81 | 1012.6 |
| 20260903180225 | 82 | 0 | 11.0 | 15.0 | 0.00 | 0.14 | 0.14 | 81 | 1012.6 |
| 20260903180124 | 83 | 152 | 9.0 | 15.0 | 0.00 | 0.14 | 0.14 | 82 | 1012.6 |
| 20260903180025 | 83 | 149 | 6.0 | 9.0 | 0.00 | 0.14 | 0.14 | 83 | 1012.6 |
| 20260903175925 | 83 | 0 | 5.0 | 9.0 | 0.00 | 0.14 | 0.14 | 83 | 1012.6 |
| 20260903175825 | 83 | 0 | 6.0 | 9.0 | 0.00 | 0.14 | 0.14 | 83 | 1012.6 |
| 20260903175723 | 83 | 0 | 6.0 | 10.0 | 0.00 | 0.14 | 0.14 | 83 | 1012.6 |
| 20260903175625 | 83 | 0 | 5.0 | 10.0 | 0.00 | 0.14 | 0.14 | 83 | 1012.6 |
| 20260903175524 | 83 | 161 | 4.0 | 10.0 | 0.00 | 0.14 | 0.14 | 83 | 1012.5 |
| 20260903175424 | 83 | 0 | 4.0 | 10.0 | 0.00 | 0.14 | 0.14 | 83 | 1012.5 |
| 20260903175325 | 83 | 0 | 3.0 | 11.0 | 0.00 | 0.14 | 0.14 | 84 | 1012.4 |
| 20260903175223 | 83 | 0 | 3.0 | 11.0 | 0.00 | 0.14 | 0.14 | 84 | 1012.4 |
| 20260903175124 | 84 | 0 | 5.0 | 11.0 | 0.00 | 0.14 | 0.14 | 84 | 1012.5 |
| 20260903175023 | 84 | 0 | 6.0 | 11.0 | 0.00 | 0.14 | 0.14 | 83 | 1012.5 |
| 20260903174926 | 84 | 353 | 6.0 | 11.0 | 0.00 | 0.14 | 0.14 | 84 | 1012.5 |
| 20260903174823 | 85 | 316 | 6.0 | 13.0 | 0.00 | 0.14 | 0.14 | 84 | 1012.5 |
| 20260903174724 | 85 | 334 | 5.0 | 13.0 | 0.00 | 0.14 | 0.14 | 85 | 1012.6 |
| 20260903174623 | 85 | 336 | 5.0 | 13.0 | 0.00 | 0.14 | 0.14 | 85 | 1012.6 |
| 20260903174524 | 85 | 357 | 6.0 | 13.0 | 0.00 | 0.14 | 0.14 | 85 | 1012.6 |
| 20260903174424 | 85 | 0 | 7.0 | 13.0 | 0.00 | 0.14 | 0.14 | 84 | 1012.7 |
| 20260903174324 | 86 | 348 | 6.0 | 13.0 | 0.00 | 0.14 | 0.14 | 84 | 1012.7 |
| 20260903174225 | 86 | 344 | 5.0 | 13.0 | 0.00 | 0.14 | 0.14 | 84 | 1012.7 |
| 20260903174124 | 86 | 347 | 5.0 | 13.0 | 0.00 | 0.14 | 0.14 | 83 | 1012.7 |
| 20260903174023 | 86 | 343 | 7.0 | 13.0 | 0.00 | 0.14 | 0.14 | 83 | 1012.8 |
| 20260903173924 | 87 | 0 | 7.0 | 13.0 | 0.00 | 0.14 | 0.14 | 82 | 1012.9 |
| 20260903173825 | 87 | 314 | 6.0 | 13.0 | 0.00 | 0.14 | 0.14 | 82 | 1012.9 |
| 20260903173723 | 88 | 329 | 5.0 | 9.0 | 0.00 | 0.14 | 0.14 | 82 | 1012.8 |
| 20260903173623 | 88 | 341 | 5.0 | 9.0 | 0.00 | 0.14 | 0.14 | 82 | 1012.9 |
| 20260903173525 | 88 | 341 | 5.0 | 9.0 | 0.00 | 0.14 | 0.14 | 81 | 1012.9 |
| 20260903173424 | 88 | 0 | 5.0 | 9.0 | 0.00 | 0.14 | 0.14 | 81 | 1012.9 |
| 20260903173323 | 88 | 0 | 6.0 | 9.0 | 0.00 | 0.14 | 0.14 | 80 | 1012.9 |
| 20260903173225 | 88 | 0 | 6.0 | 9.0 | 0.00 | 0.14 | 0.14 | 79 | 1012.8 |
| 20260903173124 | 88 | 13 | 5.0 | 7.0 | 0.00 | 0.14 | 0.14 | 79 | 1012.8 |
| 20260903173023 | 88 | 20 | 3.0 | 5.0 | 0.00 | 0.14 | 0.14 | 78 | 1012.8 |
| 20260903172923 | 88 | 42 | 3.0 | 5.0 | 0.00 | 0.14 | 0.14 | 78 | 1012.8 |
| 20260903172825 | 88 | 59 | 4.0 | 5.0 | 0.00 | 0.14 | 0.14 | 78 | 1012.8 |
| 20260903172724 | 89 | 31 | 4.0 | 6.0 | 0.00 | 0.14 | 0.14 | 78 | 1012.7 |
| 20260903172623 | 89 | 31 | 4.0 | 6.0 | 0.00 | 0.14 | 0.14 | 78 | 1012.7 |
| 20260903172524 | 89 | 20 | 2.0 | 6.0 | 0.00 | 0.14 | 0.14 | 78 | 1012.6 |
| 20260903172424 | 89 | 31 | 2.0 | 6.0 | 0.00 | 0.14 | 0.14 | 76 | 1012.7 |
| 20260903172323 | 89 | 31 | 1.0 | 7.0 | 0.00 | 0.14 | 0.14 | 76 | 1012.7 |
| 20260903172224 | 89 | 31 | 1.0 | 9.0 | 0.00 | 0.14 | 0.14 | 77 | 1012.6 |
| 20260903172123 | 90 | 34 | 4.0 | 9.0 | 0.00 | 0.14 | 0.14 | 77 | 1012.5 |
| 20260903172024 | 90 | 59 | 4.0 | 10.0 | 0.00 | 0.14 | 0.14 | 77 | 1012.4 |
| 20260903171903 | 90 | 59 | 4.0 | 10.0 | 0.00 | 0.14 | 0.14 | 77 | 1012.4 |
| 20260903171803 | 90 | 73 | 4.0 | 11.0 | 0.00 | 0.14 | 0.14 | 77 | 1012.3 |
| 20260903171703 | 90 | 80 | 3.0 | 11.0 | 0.00 | 0.14 | 0.14 | 78 | 1012.3 |
| 20260903171603 | 90 | 68 | 3.0 | 11.0 | 0.00 | 0.14 | 0.14 | 78 | 1012.2 |
| 20260903171502 | 90 | 63 | 4.0 | 11.0 | 0.00 | 0.14 | 0.14 | 78 | 1012.2 |
| 20260903171403 | 90 | 37 | 5.0 | 11.0 | 0.00 | 0.14 | 0.14 | 79 | 1012.2 |
| 20260903171302 | 89 | 55 | 6.0 | 11.0 | 0.00 | 0.14 | 0.14 | 79 | 1012.1 |
| 20260903171203 | 89 | 47 | 7.0 | 11.0 | 0.00 | 0.14 | 0.14 | 79 | 1012.1 |
| 20260903171104 | 89 | 59 | 7.0 | 11.0 | 0.00 | 0.14 | 0.14 | 81 | 1012.2 |
| 20260903171004 | 89 | 66 | 8.0 | 12.0 | 0.00 | 0.14 | 0.14 | 81 | 1012.2 |
| 20260903170903 | 88 | 90 | 7.0 | 12.0 | 0.00 | 0.14 | 0.14 | 82 | 1012.3 |
| 20260903170802 | 88 | 86 | 6.0 | 12.0 | 0.00 | 0.14 | 0.14 | 82 | 1012.3 |
| 20260903170702 | 88 | 78 | 6.0 | 12.0 | 0.00 | 0.14 | 0.14 | 83 | 1012.4 |
| 20260903170602 | 88 | 83 | 6.0 | 12.0 | 0.00 | 0.14 | 0.14 | 83 | 1012.4 |
| 20260903170502 | 87 | 96 | 7.0 | 12.0 | 0.00 | 0.14 | 0.14 | 83 | 1012.4 |
| 20260903170402 | 87 | 90 | 7.0 | 12.0 | 0.00 | 0.14 | 0.14 | 83 | 1012.5 |
| 20260903170303 | 87 | 93 | 7.0 | 12.0 | 0.00 | 0.14 | 0.14 | 83 | 1012.5 |
| 20260903170203 | 87 | 73 | 7.0 | 12.0 | 0.00 | 0.14 | 0.14 | 83 | 1012.6 |
| 20260903170003 | 87 | 93 | 4.0 | 11.0 | 0.00 | 0.14 | 0.14 | 84 | 1012.6 |
| 20260903165902 | 87 | 99 | 5.0 | 11.0 | 0.00 | 0.14 | 0.14 | 84 | 1012.5 |
| 20260903165802 | 87 | 111 | 6.0 | 11.0 | 0.00 | 0.14 | 0.14 | 84 | 1012.6 |
| 20260903165701 | 87 | 97 | 7.0 | 11.0 | 0.00 | 0.14 | 0.14 | 85 | 1012.5 |
| 20260903165602 | 87 | 102 | 6.0 | 11.0 | 0.00 | 0.14 | 0.14 | 86 | 1012.6 |
| 20260903165503 | 86 | 111 | 6.0 | 11.0 | 0.00 | 0.14 | 0.14 | 86 | 1012.5 |
| 20260903165404 | 86 | 117 | 7.0 | 11.0 | 0.00 | 0.14 | 0.14 | 87 | 1012.5 |
| 20260903165305 | 86 | 99 | 7.0 | 11.0 | 0.00 | 0.14 | 0.14 | 87 | 1012.6 |
| 20260903165202 | 86 | 78 | 7.0 | 11.0 | 0.00 | 0.14 | 0.14 | 87 | 1012.6 |
| 20260903165102 | 86 | 100 | 7.0 | 11.0 | 0.00 | 0.14 | 0.14 | 87 | 1012.5 |
| 20260903165004 | 86 | 93 | 7.0 | 11.0 | 0.00 | 0.14 | 0.14 | 87 | 1012.7 |
| 20260903164903 | 86 | 75 | 8.0 | 11.0 | 0.00 | 0.14 | 0.14 | 88 | 1012.6 |
| 20260903164803 | 86 | 97 | 8.0 | 11.0 | 0.00 | 0.14 | 0.14 | 88 | 1012.7 |
| 20260903164703 | 86 | 87 | 7.0 | 10.0 | 0.00 | 0.14 | 0.14 | 88 | 1012.7 |
| 20260903164602 | 86 | 96 | 7.0 | 10.0 | 0.00 | 0.14 | 0.14 | 88 | 1012.7 |
| 20260903164504 | 86 | 90 | 6.0 | 10.0 | 0.00 | 0.14 | 0.14 | 89 | 1012.7 |
| 20260903164402 | 85 | 63 | 6.0 | 10.0 | 0.00 | 0.14 | 0.14 | 89 | 1012.7 |
| 20260903164303 | 85 | 49 | 6.0 | 10.0 | 0.00 | 0.14 | 0.14 | 89 | 1012.7 |
| 20260903164203 | 85 | 59 | 7.0 | 12.0 | 0.00 | 0.14 | 0.14 | 89 | 1012.7 |
| 20260903164102 | 85 | 63 | 6.0 | 12.0 | 0.00 | 0.14 | 0.14 | 89 | 1012.7 |
| 20260903164004 | 85 | 111 | 6.0 | 12.0 | 0.00 | 0.14 | 0.14 | 89 | 1012.6 |
| 20260903163903 | 85 | 86 | 6.0 | 12.0 | 0.00 | 0.14 | 0.14 | 89 | 1012.7 |
| 20260903163803 | 85 | 99 | 6.0 | 12.0 | 0.00 | 0.14 | 0.14 | 88 | 1012.7 |
| 20260903163704 | 85 | 80 | 10.0 | 12.0 | 0.00 | 0.14 | 0.14 | 88 | 1012.7 |
| 20260903163603 | 85 | 80 | 10.0 | 12.0 | 0.00 | 0.14 | 0.14 | 88 | 1012.7 |
| 20260903163503 | 85 | 80 | 10.0 | 12.0 | 0.00 | 0.14 | 0.14 | 88 | 1012.7 |
| 20260903163403 | 85 | 80 | 10.0 | 12.0 | 0.00 | 0.14 | 0.14 | 88 | 1012.8 |
| 20260903163303 | 85 | 80 | 10.0 | 12.0 | 0.00 | 0.14 | 0.14 | 88 | 1012.7 |
| 20260903163202 | 85 | 96 | 9.0 | 13.0 | 0.00 | 0.14 | 0.14 | 88 | 1012.7 |
| 20260903163102 | 85 | 87 | 9.0 | 13.0 | 0.00 | 0.14 | 0.14 | 88 | 1012.8 |
| 20260903163003 | 85 | 82 | 9.0 | 13.0 | 0.00 | 0.14 | 0.14 | 88 | 1012.7 |
| 20260903162901 | 85 | 78 | 8.0 | 13.0 | 0.00 | 0.14 | 0.14 | 87 | 1012.8 |
| 20260903162802 | 86 | 89 | 8.0 | 13.0 | 0.00 | 0.14 | 0.14 | 87 | 1012.8 |
| 20260903162702 | 86 | 79 | 8.0 | 13.0 | 0.00 | 0.14 | 0.14 | 87 | 1012.7 |
| 20260903162603 | 86 | 80 | 8.0 | 13.0 | 0.00 | 0.14 | 0.14 | 87 | 1012.8 |
| 20260903162502 | 86 | 49 | 9.0 | 13.0 | 0.00 | 0.14 | 0.14 | 86 | 1012.8 |
| 20260903162403 | 86 | 79 | 9.0 | 13.0 | 0.00 | 0.14 | 0.14 | 86 | 1012.8 |
| 20260903162306 | 87 | 85 | 9.0 | 13.0 | 0.00 | 0.14 | 0.14 | 86 | 1012.7 |
| 20260903162203 | 87 | 87 | 6.0 | 12.0 | 0.00 | 0.14 | 0.14 | 86 | 1012.7 |
| 20260903162102 | 87 | 90 | 7.0 | 11.0 | 0.00 | 0.14 | 0.14 | 86 | 1012.7 |
| 20260903162003 | 87 | 58 | 7.0 | 11.0 | 0.00 | 0.14 | 0.14 | 85 | 1012.7 |
| 20260903161903 | 87 | 62 | 7.0 | 11.0 | 0.00 | 0.14 | 0.14 | 85 | 1012.7 |
| 20260903161802 | 87 | 71 | 7.0 | 11.0 | 0.00 | 0.14 | 0.14 | 84 | 1012.8 |
| 20260903161702 | 87 | 69 | 7.0 | 11.0 | 0.00 | 0.14 | 0.14 | 84 | 1012.7 |
| 20260903161602 | 87 | 76 | 8.0 | 11.0 | 0.00 | 0.14 | 0.14 | 84 | 1012.7 |
| 20260903161503 | 87 | 90 | 8.0 | 11.0 | 0.00 | 0.14 | 0.14 | 85 | 1012.6 |
| 20260903161403 | 87 | 78 | 6.0 | 10.0 | 0.00 | 0.14 | 0.14 | 85 | 1012.7 |
| 20260903161303 | 87 | 90 | 4.0 | 9.0 | 0.00 | 0.14 | 0.14 | 85 | 1012.7 |
| 20260903161203 | 87 | 100 | 5.0 | 9.0 | 0.00 | 0.14 | 0.14 | 85 | 1012.7 |
| 20260903161102 | 86 | 102 | 6.0 | 9.0 | 0.00 | 0.14 | 0.14 | 85 | 1012.7 |
| 20260903161004 | 86 | 94 | 5.0 | 9.0 | 0.00 | 0.14 | 0.14 | 85 | 1012.7 |
| 20260903160902 | 87 | 157 | 5.0 | 9.0 | 0.00 | 0.14 | 0.14 | 85 | 1012.7 |
| 20260903160803 | 87 | 97 | 5.0 | 7.0 | 0.00 | 0.14 | 0.14 | 85 | 1012.7 |
| 20260903160703 | 87 | 110 | 5.0 | 7.0 | 0.00 | 0.14 | 0.14 | 85 | 1012.8 |
| 20260903160603 | 87 | 99 | 4.0 | 7.0 | 0.00 | 0.14 | 0.14 | 85 | 1012.6 |
| 20260903160502 | 87 | 107 | 2.0 | 7.0 | 0.00 | 0.14 | 0.14 | 84 | 1012.6 |
| 20260903160402 | 87 | 103 | 3.0 | 7.0 | 0.00 | 0.14 | 0.14 | 84 | 1012.6 |
| 20260903160302 | 87 | 109 | 6.0 | 7.0 | 0.00 | 0.14 | 0.14 | 83 | 1012.6 |
| 20260903160202 | 87 | 125 | 6.0 | 7.0 | 0.00 | 0.14 | 0.14 | 84 | 1012.7 |
| 20260903160005 | 87 | 90 | 4.0 | 9.0 | 0.00 | 0.14 | 0.14 | 84 | 1012.6 |
| 20260903155903 | 87 | 87 | 3.0 | 9.0 | 0.00 | 0.14 | 0.14 | 84 | 1012.5 |
| 20260903155802 | 87 | 179 | 3.0 | 9.0 | 0.00 | 0.14 | 0.14 | 84 | 1012.5 |
| 20260903155702 | 87 | 133 | 3.0 | 9.0 | 0.00 | 0.14 | 0.14 | 84 | 1012.5 |
| 20260903155603 | 87 | 157 | 4.0 | 9.0 | 0.00 | 0.14 | 0.14 | 84 | 1012.5 |
| 20260903155503 | 87 | 134 | 5.0 | 9.0 | 0.00 | 0.14 | 0.14 | 84 | 1012.5 |
| 20260903155403 | 87 | 113 | 5.0 | 9.0 | 0.00 | 0.14 | 0.14 | 84 | 1012.5 |
| 20260903155306 | 87 | 110 | 6.0 | 9.0 | 0.00 | 0.14 | 0.14 | 85 | 1012.5 |
| 20260903155201 | 87 | 110 | 5.0 | 9.0 | 0.00 | 0.14 | 0.14 | 85 | 1012.5 |
| 20260903155103 | 87 | 103 | 4.0 | 7.0 | 0.00 | 0.14 | 0.14 | 85 | 1012.4 |
| 20260903155004 | 87 | 78 | 4.0 | 6.0 | 0.00 | 0.14 | 0.14 | 85 | 1012.4 |
| 20260903154903 | 87 | 145 | 3.0 | 6.0 | 0.00 | 0.14 | 0.14 | 86 | 1012.4 |
| 20260903154803 | 86 | 131 | 1.0 | 5.0 | 0.00 | 0.14 | 0.14 | 87 | 1012.4 |
| 20260903154703 | 86 | 106 | 1.0 | 4.0 | 0.00 | 0.14 | 0.14 | 86 | 1012.4 |
| 20260903154602 | 86 | 106 | 2.0 | 4.0 | 0.00 | 0.14 | 0.14 | 86 | 1012.4 |
| 20260903154505 | 86 | 103 | 2.0 | 4.0 | 0.00 | 0.14 | 0.14 | 87 | 1012.4 |
| 20260903154403 | 86 | 97 | 1.0 | 4.0 | 0.00 | 0.14 | 0.14 | 87 | 1012.3 |
| 20260903154302 | 86 | 104 | 0.0 | 4.0 | 0.00 | 0.14 | 0.14 | 87 | 1012.4 |
| 20260903154204 | 85 | 130 | 0.0 | 4.0 | 0.00 | 0.14 | 0.14 | 88 | 1012.3 |
| 20260903154103 | 85 | 130 | 0.0 | 4.0 | 0.00 | 0.14 | 0.14 | 88 | 1012.4 |
| 20260903154004 | 85 | 123 | 0.0 | 4.0 | 0.00 | 0.14 | 0.14 | 88 | 1012.4 |
| 20260903153902 | 84 | 123 | 0.0 | 4.0 | 0.00 | 0.14 | 0.14 | 92 | 1012.3 |
| 20260903153803 | 84 | 65 | 1.0 | 4.0 | 0.00 | 0.14 | 0.14 | 92 | 1012.3 |
| 20260903153703 | 84 | 65 | 1.0 | 4.0 | 0.00 | 0.14 | 0.14 | 92 | 1012.3 |
| 20260903153604 | 84 | 65 | 1.0 | 4.0 | 0.00 | 0.14 | 0.14 | 92 | 1012.3 |
| 20260903153503 | 84 | 65 | 1.0 | 4.0 | 0.00 | 0.14 | 0.14 | 92 | 1012.3 |
| 20260903153330 | 84 | 63 | 1.0 | 3.0 | 0.00 | 0.14 | 0.14 | 92 | 1012.3 |
| 20260903153230 | 83 | 38 | 0.0 | 1.0 | 0.00 | 0.14 | 0.14 | 91 | 1012.3 |
| 20260903153133 | 83 | 27 | 0.0 | 1.0 | 0.00 | 0.14 | 0.14 | 92 | 1012.3 |
| 20260903153031 | 83 | 25 | 0.0 | 1.0 | 0.00 | 0.14 | 0.14 | 92 | 1012.3 |
| 20260903152932 | 83 | 25 | 0.0 | 1.0 | 0.00 | 0.14 | 0.14 | 92 | 1012.4 |
| 20260903152831 | 83 | 25 | 0.0 | 1.0 | 0.00 | 0.14 | 0.14 | 93 | 1012.4 |
| 20260903152732 | 83 | 25 | 0.0 | 0.0 | 0.00 | 0.14 | 0.14 | 93 | 1012.3 |
| 20260903152631 | 83 | 27 | 0.0 | 0.0 | 0.00 | 0.14 | 0.14 | 93 | 1012.3 |
| 20260903152531 | 83 | 27 | 0.0 | 1.0 | 0.00 | 0.14 | 0.14 | 94 | 1012.3 |
| 20260903152432 | 83 | 25 | 0.0 | 1.0 | 0.00 | 0.14 | 0.14 | 95 | 1012.3 |
| 20260903152332 | 83 | 24 | 0.0 | 1.0 | 0.01 | 0.14 | 0.14 | 95 | 1012.4 |
| 20260903152231 | 83 | 24 | 0.0 | 1.0 | 0.01 | 0.14 | 0.14 | 94 | 1012.4 |
| 20260903152131 | 83 | 37 | 0.0 | 2.0 | 0.01 | 0.14 | 0.14 | 94 | 1012.4 |
| 20260903152031 | 83 | 38 | 0.0 | 2.0 | 0.01 | 0.14 | 0.14 | 95 | 1012.4 |
| 20260903151933 | 83 | 38 | 0.0 | 2.0 | 0.01 | 0.14 | 0.14 | 94 | 1012.3 |
| 20260903151831 | 83 | 38 | 0.0 | 2.0 | 0.02 | 0.14 | 0.14 | 94 | 1012.4 |
| 20260903151731 | 82 | 38 | 0.0 | 2.0 | 0.02 | 0.14 | 0.14 | 94 | 1012.3 |
| 20260903151632 | 83 | 38 | 1.0 | 2.0 | 0.02 | 0.14 | 0.14 | 95 | 1012.4 |
| 20260903151532 | 83 | 38 | 0.0 | 2.0 | 0.02 | 0.14 | 0.14 | 95 | 1012.4 |
| 20260903151431 | 83 | 38 | 0.0 | 2.0 | 0.02 | 0.14 | 0.14 | 95 | 1012.4 |
| 20260903151332 | 83 | 38 | 1.0 | 2.0 | 0.02 | 0.14 | 0.14 | 95 | 1012.4 |
| 20260903151231 | 82 | 38 | 1.0 | 2.0 | 0.02 | 0.14 | 0.14 | 95 | 1012.5 |
| 20260903151131 | 82 | 38 | 0.0 | 1.0 | 0.02 | 0.14 | 0.14 | 94 | 1012.4 |
| 20260903151031 | 82 | 38 | 0.0 | 1.0 | 0.02 | 0.14 | 0.14 | 95 | 1012.5 |
| 20260903150930 | 82 | 38 | 0.0 | 1.0 | 0.02 | 0.14 | 0.14 | 94 | 1012.5 |
| 20260903150832 | 82 | 38 | 0.0 | 1.0 | 0.02 | 0.14 | 0.14 | 95 | 1012.5 |
| 20260903150731 | 82 | 38 | 0.0 | 1.0 | 0.02 | 0.14 | 0.14 | 94 | 1012.5 |
| 20260903150632 | 82 | 38 | 0.0 | 1.0 | 0.02 | 0.14 | 0.14 | 94 | 1012.5 |
| 20260903150532 | 82 | 38 | 0.0 | 1.0 | 0.02 | 0.14 | 0.14 | 95 | 1012.5 |
| 20260903150430 | 82 | 38 | 0.0 | 1.0 | 0.02 | 0.14 | 0.14 | 94 | 1012.5 |
| 20260903150331 | 82 | 38 | 0.0 | 1.0 | 0.02 | 0.14 | 0.14 | 94 | 1012.5 |
| 20260903150231 | 82 | 38 | 0.0 | 1.0 | 0.02 | 0.14 | 0.14 | 94 | 1012.5 |
| 20260903150132 | 82 | 38 | 0.0 | 1.0 | 0.02 | 0.14 | 0.14 | 94 | 1012.5 |
| 20260903150031 | 82 | 38 | 1.0 | 1.0 | 0.02 | 0.14 | 0.14 | 95 | 1012.5 |
| 20260903145932 | 82 | 38 | 0.0 | 0.0 | 0.02 | 0.12 | 0.14 | 94 | 1012.5 |
| 20260903145832 | 82 | 38 | 0.0 | 0.0 | 0.02 | 0.12 | 0.14 | 94 | 1012.6 |
| 20260903145731 | 82 | 38 | 0.0 | 1.0 | 0.02 | 0.12 | 0.14 | 94 | 1012.5 |
| 20260903145632 | 82 | 38 | 0.0 | 2.0 | 0.02 | 0.12 | 0.14 | 94 | 1012.6 |
| 20260903145532 | 82 | 38 | 0.0 | 2.0 | 0.02 | 0.12 | 0.14 | 94 | 1012.6 |
| 20260903145432 | 82 | 38 | 0.0 | 2.0 | 0.02 | 0.12 | 0.14 | 94 | 1012.6 |
| 20260903145331 | 82 | 38 | 0.0 | 2.0 | 0.02 | 0.12 | 0.14 | 95 | 1012.6 |
| 20260903145229 | 82 | 38 | 0.0 | 2.0 | 0.02 | 0.12 | 0.14 | 95 | 1012.7 |
| 20260903145127 | 82 | 38 | 0.0 | 3.0 | 0.02 | 0.12 | 0.14 | 95 | 1012.6 |
| 20260903145025 | 81 | 38 | 0.0 | 4.0 | 0.02 | 0.12 | 0.14 | 94 | 1012.7 |
| 20260903144921 | 81 | 38 | 0.0 | 4.0 | 0.02 | 0.12 | 0.14 | 94 | 1012.7 |
| 20260903144820 | 81 | 38 | 1.0 | 4.0 | 0.02 | 0.12 | 0.14 | 94 | 1012.7 |
| 20260903144721 | 81 | 38 | 1.0 | 4.0 | 0.02 | 0.12 | 0.14 | 94 | 1012.7 |
| 20260903144620 | 81 | 38 | 1.0 | 4.0 | 0.02 | 0.12 | 0.14 | 94 | 1012.8 |
| 20260903144521 | 81 | 38 | 1.0 | 4.0 | 0.02 | 0.12 | 0.14 | 94 | 1012.7 |
| 20260903144419 | 81 | 38 | 1.0 | 4.0 | 0.02 | 0.12 | 0.14 | 94 | 1012.7 |
| 20260903144320 | 81 | 38 | 2.0 | 4.0 | 0.02 | 0.12 | 0.14 | 94 | 1012.7 |
| 20260903144221 | 81 | 38 | 3.0 | 4.0 | 0.02 | 0.12 | 0.14 | 94 | 1012.8 |
| 20260903144120 | 82 | 38 | 3.0 | 4.0 | 0.02 | 0.12 | 0.14 | 94 | 1012.8 |
| 20260903144021 | 82 | 45 | 3.0 | 4.0 | 0.02 | 0.12 | 0.14 | 94 | 1012.9 |
| 20260903143921 | 82 | 45 | 3.0 | 6.0 | 0.02 | 0.12 | 0.14 | 94 | 1012.9 |
| 20260903143820 | 82 | 45 | 3.0 | 6.0 | 0.02 | 0.12 | 0.14 | 94 | 1012.8 |
| 20260903143721 | 82 | 45 | 3.0 | 6.0 | 0.02 | 0.12 | 0.14 | 94 | 1012.9 |
| 20260903143619 | 82 | 45 | 3.0 | 6.0 | 0.02 | 0.12 | 0.14 | 94 | 1012.8 |
| 20260903143520 | 82 | 45 | 3.0 | 6.0 | 0.02 | 0.12 | 0.14 | 94 | 1012.9 |
| 20260903143420 | 82 | 45 | 3.0 | 6.0 | 0.02 | 0.12 | 0.14 | 94 | 1012.9 |
| 20260903143319 | 81 | 56 | 3.0 | 6.0 | 0.02 | 0.12 | 0.14 | 94 | 1012.9 |
| 20260903143220 | 81 | 56 | 3.0 | 7.0 | 0.02 | 0.12 | 0.14 | 94 | 1012.9 |
| 20260903143121 | 81 | 55 | 4.0 | 9.0 | 0.02 | 0.12 | 0.14 | 93 | 1012.9 |
| 20260903143019 | 81 | 82 | 4.0 | 9.0 | 0.02 | 0.12 | 0.14 | 94 | 1012.9 |
| 20260903142919 | 81 | 93 | 4.0 | 9.0 | 0.02 | 0.12 | 0.14 | 94 | 1012.9 |
| 20260903142820 | 81 | 73 | 4.0 | 9.0 | 0.02 | 0.12 | 0.14 | 94 | 1012.8 |
| 20260903142720 | 81 | 83 | 4.0 | 9.0 | 0.02 | 0.12 | 0.14 | 94 | 1012.9 |
| 20260903142619 | 81 | 92 | 5.0 | 9.0 | 0.02 | 0.12 | 0.14 | 94 | 1012.8 |
| 20260903142518 | 81 | 75 | 5.0 | 9.0 | 0.02 | 0.12 | 0.14 | 94 | 1013.0 |
| 20260903142416 | 81 | 89 | 4.0 | 9.0 | 0.02 | 0.12 | 0.14 | 94 | 1013.0 |
| 20260903142314 | 81 | 93 | 5.0 | 9.0 | 0.01 | 0.12 | 0.13 | 94 | 1013.0 |
| 20260903142214 | 82 | 106 | 5.0 | 9.0 | 0.01 | 0.12 | 0.13 | 94 | 1013.0 |
| 20260903142108 | 82 | 97 | 4.0 | 6.0 | 0.01 | 0.12 | 0.13 | 94 | 1013.0 |
| 20260903142009 | 82 | 99 | 4.0 | 6.0 | 0.01 | 0.12 | 0.13 | 94 | 1012.9 |
| 20260903141908 | 82 | 103 | 3.0 | 6.0 | 0.01 | 0.12 | 0.12 | 94 | 1013.0 |
| 20260903141806 | 82 | 104 | 2.0 | 6.0 | 0.00 | 0.12 | 0.12 | 94 | 1013.0 |
| 20260903141703 | 82 | 118 | 3.0 | 6.0 | 0.00 | 0.12 | 0.12 | 94 | 1013.0 |
| 20260903141605 | 82 | 117 | 4.0 | 6.0 | 0.00 | 0.12 | 0.12 | 94 | 1013.0 |
| 20260903141503 | 82 | 97 | 4.0 | 6.0 | 0.00 | 0.12 | 0.12 | 94 | 1013.0 |
| 20260903141401 | 82 | 96 | 4.0 | 5.0 | 0.00 | 0.12 | 0.12 | 94 | 1013.0 |
| 20260903141302 | 82 | 94 | 5.0 | 5.0 | 0.00 | 0.12 | 0.12 | 94 | 1013.0 |
| 20260903141203 | 82 | 93 | 4.0 | 5.0 | 0.00 | 0.12 | 0.12 | 94 | 1013.0 |
| 20260903141102 | 82 | 92 | 3.0 | 5.0 | 0.00 | 0.12 | 0.12 | 95 | 1012.9 |
| 20260903141003 | 82 | 107 | 3.0 | 5.0 | 0.00 | 0.12 | 0.12 | 95 | 1012.9 |
| 20260903140902 | 82 | 93 | 4.0 | 5.0 | 0.00 | 0.12 | 0.12 | 95 | 1013.0 |
| 20260903140803 | 82 | 93 | 4.0 | 5.0 | 0.00 | 0.12 | 0.12 | 95 | 1012.9 |
| 20260903140703 | 82 | 93 | 4.0 | 5.0 | 0.00 | 0.12 | 0.12 | 95 | 1013.0 |
| 20260903140603 | 82 | 93 | 4.0 | 5.0 | 0.00 | 0.12 | 0.12 | 95 | 1013.0 |
| 20260903140502 | 82 | 66 | 3.0 | 4.0 | 0.00 | 0.12 | 0.12 | 95 | 1013.0 |
| 20260903140403 | 82 | 63 | 3.0 | 4.0 | 0.00 | 0.12 | 0.12 | 95 | 1013.0 |
| 20260903140303 | 82 | 56 | 3.0 | 4.0 | 0.00 | 0.12 | 0.12 | 95 | 1013.0 |
| 20260903140203 | 82 | 56 | 4.0 | 4.0 | 0.00 | 0.12 | 0.12 | 95 | 1012.9 |
| 20260903140004 | 81 | 52 | 3.0 | 4.0 | 0.00 | 0.12 | 0.12 | 95 | 1012.9 |
| 20260903135903 | 81 | 52 | 3.0 | 4.0 | 0.00 | 0.12 | 0.12 | 94 | 1012.9 |
| 20260903135804 | 81 | 52 | 2.0 | 3.0 | 0.00 | 0.12 | 0.12 | 94 | 1012.8 |
| 20260903135702 | 81 | 52 | 2.0 | 3.0 | 0.00 | 0.12 | 0.12 | 94 | 1012.8 |
| 20260903135602 | 81 | 52 | 2.0 | 3.0 | 0.00 | 0.12 | 0.12 | 94 | 1012.8 |
| 20260903135502 | 81 | 52 | 2.0 | 2.0 | 0.00 | 0.12 | 0.12 | 94 | 1012.8 |
| 20260903135403 | 81 | 52 | 0.0 | 1.0 | 0.00 | 0.12 | 0.12 | 94 | 1012.8 |
| 20260903135306 | 81 | 52 | 0.0 | 1.0 | 0.00 | 0.12 | 0.12 | 94 | 1012.8 |
| 20260903135203 | 81 | 52 | 0.0 | 1.0 | 0.00 | 0.12 | 0.12 | 94 | 1012.8 |
| 20260903135103 | 81 | 52 | 0.0 | 1.0 | 0.00 | 0.12 | 0.12 | 94 | 1012.8 |
| 20260903135003 | 81 | 52 | 0.0 | 1.0 | 0.00 | 0.12 | 0.12 | 94 | 1012.8 |
| 20260903134902 | 81 | 52 | 0.0 | 1.0 | 0.00 | 0.12 | 0.12 | 94 | 1012.7 |
| 20260903134802 | 82 | 52 | 0.0 | 1.0 | 0.00 | 0.12 | 0.12 | 94 | 1012.7 |
| 20260903134703 | 82 | 52 | 0.0 | 1.0 | 0.00 | 0.12 | 0.12 | 94 | 1012.7 |
| 20260903134603 | 81 | 52 | 0.0 | 1.0 | 0.00 | 0.12 | 0.12 | 94 | 1012.7 |
| 20260903134503 | 82 | 52 | 0.0 | 0.0 | 0.00 | 0.12 | 0.12 | 94 | 1012.7 |
| 20260903134403 | 81 | 52 | 0.0 | 2.0 | 0.00 | 0.12 | 0.12 | 94 | 1012.6 |
| 20260903134301 | 82 | 52 | 0.0 | 2.0 | 0.00 | 0.12 | 0.12 | 94 | 1012.6 |
| 20260903134204 | 82 | 52 | 0.0 | 4.0 | 0.00 | 0.12 | 0.12 | 94 | 1012.7 |
| 20260903134103 | 82 | 52 | 0.0 | 4.0 | 0.00 | 0.12 | 0.12 | 94 | 1012.7 |
| 20260903134002 | 82 | 52 | 0.0 | 4.0 | 0.00 | 0.12 | 0.12 | 94 | 1012.6 |
| 20260903133903 | 82 | 52 | 0.0 | 4.0 | 0.00 | 0.12 | 0.12 | 94 | 1012.7 |
| 20260903133802 | 82 | 52 | 0.0 | 4.0 | 0.00 | 0.12 | 0.12 | 94 | 1012.6 |
| 20260903133704 | 82 | 52 | 0.0 | 4.0 | 0.00 | 0.12 | 0.12 | 94 | 1012.7 |
| 20260903133603 | 82 | 52 | 0.0 | 4.0 | 0.00 | 0.12 | 0.12 | 94 | 1012.7 |
| 20260903133503 | 82 | 52 | 1.0 | 4.0 | 0.00 | 0.12 | 0.12 | 94 | 1012.8 |
| 20260903133402 | 82 | 52 | 2.0 | 4.0 | 0.00 | 0.12 | 0.12 | 94 | 1012.8 |
| 20260903133303 | 82 | 52 | 3.0 | 4.0 | 0.00 | 0.12 | 0.12 | 94 | 1012.8 |
| 20260903133203 | 82 | 51 | 3.0 | 4.0 | 0.00 | 0.12 | 0.12 | 94 | 1012.8 |
| 20260903133103 | 82 | 51 | 3.0 | 4.0 | 0.00 | 0.12 | 0.12 | 94 | 1012.9 |
| 20260903133003 | 82 | 51 | 3.0 | 4.0 | 0.00 | 0.12 | 0.12 | 94 | 1012.9 |
| 20260903132903 | 82 | 51 | 3.0 | 4.0 | 0.00 | 0.12 | 0.12 | 94 | 1012.8 |
| 20260903132803 | 82 | 49 | 3.0 | 3.0 | 0.00 | 0.12 | 0.12 | 94 | 1012.8 |
| 20260903132704 | 82 | 49 | 3.0 | 3.0 | 0.00 | 0.12 | 0.12 | 94 | 1012.9 |
| 20260903132603 | 82 | 49 | 3.0 | 3.0 | 0.00 | 0.12 | 0.12 | 94 | 1012.9 |
| 20260903132503 | 82 | 49 | 3.0 | 4.0 | 0.00 | 0.12 | 0.12 | 94 | 1013.0 |
| 20260903132403 | 82 | 49 | 3.0 | 4.0 | 0.00 | 0.12 | 0.12 | 94 | 1013.0 |
| 20260903132306 | 82 | 49 | 3.0 | 4.0 | 0.00 | 0.12 | 0.12 | 94 | 1012.9 |
| 20260903132203 | 82 | 49 | 3.0 | 4.0 | 0.00 | 0.12 | 0.12 | 94 | 1012.9 |
| 20260903132104 | 82 | 49 | 3.0 | 4.0 | 0.00 | 0.12 | 0.12 | 94 | 1012.9 |
| 20260903132005 | 82 | 49 | 3.0 | 4.0 | 0.00 | 0.12 | 0.12 | 94 | 1012.9 |
| 20260903131902 | 81 | 49 | 2.0 | 4.0 | 0.00 | 0.12 | 0.12 | 94 | 1012.8 |
| 20260903131802 | 81 | 49 | 2.0 | 4.0 | 0.00 | 0.12 | 0.12 | 93 | 1012.8 |
| 20260903131702 | 81 | 85 | 3.0 | 4.0 | 0.00 | 0.12 | 0.12 | 93 | 1012.9 |
| 20260903131604 | 81 | 85 | 3.0 | 4.0 | 0.00 | 0.12 | 0.12 | 94 | 1012.9 |
| 20260903131504 | 81 | 85 | 2.0 | 4.0 | 0.00 | 0.12 | 0.12 | 94 | 1012.9 |
| 20260903131404 | 81 | 85 | 3.0 | 4.0 | 0.00 | 0.12 | 0.12 | 94 | 1012.8 |
| 20260903131259 | 81 | 85 | 3.0 | 4.0 | 0.00 | 0.12 | 0.12 | 94 | 1012.8 |
| 20260903131159 | 81 | 85 | 3.0 | 4.0 | 0.00 | 0.12 | 0.12 | 93 | 1012.8 |
| 20260903131057 | 81 | 83 | 2.0 | 4.0 | 0.00 | 0.12 | 0.12 | 93 | 1012.7 |
| 20260903130954 | 81 | 82 | 2.0 | 3.0 | 0.00 | 0.12 | 0.12 | 93 | 1012.7 |
| 20260903130851 | 81 | 82 | 2.0 | 3.0 | 0.00 | 0.12 | 0.12 | 93 | 1012.7 |
| 20260903130748 | 81 | 82 | 2.0 | 3.0 | 0.00 | 0.12 | 0.12 | 93 | 1012.7 |
| 20260903130649 | 81 | 82 | 2.0 | 3.0 | 0.00 | 0.12 | 0.12 | 94 | 1012.6 |
| 20260903130543 | 81 | 80 | 0.0 | 2.0 | 0.00 | 0.12 | 0.12 | 94 | 1012.6 |
| 20260903130442 | 81 | 80 | 0.0 | 0.0 | 0.00 | 0.12 | 0.12 | 94 | 1012.5 |
| 20260903130337 | 81 | 80 | 0.0 | 0.0 | 0.00 | 0.12 | 0.12 | 94 | 1012.4 |
| 20260903130234 | 81 | 80 | 0.0 | 0.0 | 0.00 | 0.12 | 0.12 | 94 | 1012.4 |
| 20260903130132 | 81 | 80 | 0.0 | 0.0 | 0.00 | 0.12 | 0.12 | 93 | 1012.4 |
| 20260903130034 | 81 | 80 | 0.0 | 0.0 | 0.00 | 0.12 | 0.12 | 94 | 1012.4 |
| 20260903125931 | 81 | 80 | 0.0 | 0.0 | 0.00 | 0.12 | 0.12 | 94 | 1012.3 |
| 20260903125831 | 81 | 80 | 0.0 | 0.0 | 0.00 | 0.12 | 0.12 | 93 | 1012.3 |
| 20260903125733 | 81 | 80 | 0.0 | 1.0 | 0.01 | 0.12 | 0.12 | 93 | 1012.3 |
| 20260903125632 | 81 | 80 | 0.0 | 2.0 | 0.01 | 0.12 | 0.12 | 93 | 1012.3 |
| 20260903125531 | 81 | 80 | 0.0 | 2.0 | 0.01 | 0.12 | 0.12 | 93 | 1012.3 |
| 20260903125431 | 81 | 80 | 0.0 | 2.0 | 0.01 | 0.12 | 0.12 | 93 | 1012.3 |
| 20260903125331 | 81 | 80 | 0.0 | 2.0 | 0.01 | 0.12 | 0.12 | 93 | 1012.3 |
| 20260903125232 | 81 | 80 | 0.0 | 2.0 | 0.01 | 0.12 | 0.12 | 93 | 1012.3 |
| 20260903125131 | 81 | 80 | 0.0 | 2.0 | 0.01 | 0.12 | 0.12 | 93 | 1012.3 |
| 20260903125033 | 81 | 80 | 0.0 | 2.0 | 0.01 | 0.12 | 0.12 | 93 | 1012.3 |
| 20260903124931 | 81 | 80 | 0.0 | 2.0 | 0.01 | 0.12 | 0.12 | 93 | 1012.4 |
| 20260903124831 | 81 | 80 | 1.0 | 2.0 | 0.01 | 0.12 | 0.12 | 93 | 1012.4 |
| 20260903124732 | 81 | 80 | 1.0 | 2.0 | 0.01 | 0.12 | 0.12 | 93 | 1012.4 |
| 20260903124632 | 81 | 80 | 0.0 | 1.0 | 0.01 | 0.12 | 0.12 | 93 | 1012.3 |
| 20260903124532 | 81 | 80 | 0.0 | 2.0 | 0.01 | 0.12 | 0.12 | 93 | 1012.4 |
| 20260903124432 | 81 | 80 | 0.0 | 2.0 | 0.01 | 0.12 | 0.12 | 93 | 1012.3 |
| 20260903124332 | 81 | 80 | 0.0 | 2.0 | 0.01 | 0.12 | 0.12 | 93 | 1012.4 |
| 20260903124233 | 81 | 80 | 0.0 | 3.0 | 0.01 | 0.12 | 0.12 | 93 | 1012.4 |
| 20260903124132 | 81 | 80 | 0.0 | 3.0 | 0.01 | 0.12 | 0.12 | 93 | 1012.3 |
| 20260903124032 | 81 | 80 | 0.0 | 3.0 | 0.02 | 0.12 | 0.12 | 93 | 1012.4 |
| 20260903123932 | 81 | 80 | 0.0 | 3.0 | 0.02 | 0.12 | 0.12 | 93 | 1012.3 |
| 20260903123832 | 81 | 80 | 0.0 | 4.0 | 0.02 | 0.12 | 0.12 | 93 | 1012.3 |
| 20260903123731 | 81 | 80 | 1.0 | 4.0 | 0.02 | 0.12 | 0.12 | 93 | 1012.4 |
| 20260903123632 | 81 | 80 | 2.0 | 4.0 | 0.02 | 0.12 | 0.12 | 93 | 1012.3 |
| 20260903123532 | 81 | 80 | 2.0 | 4.0 | 0.02 | 0.12 | 0.12 | 93 | 1012.3 |
| 20260903123432 | 81 | 79 | 2.0 | 4.0 | 0.02 | 0.12 | 0.12 | 93 | 1012.3 |
| 20260903123331 | 81 | 79 | 2.0 | 4.0 | 0.03 | 0.12 | 0.12 | 93 | 1012.3 |
| 20260903123230 | 81 | 79 | 2.0 | 4.0 | 0.03 | 0.12 | 0.12 | 93 | 1012.2 |
| 20260903123132 | 81 | 79 | 2.0 | 4.0 | 0.03 | 0.12 | 0.12 | 93 | 1012.2 |
| 20260903123031 | 81 | 79 | 3.0 | 4.0 | 0.03 | 0.12 | 0.12 | 93 | 1012.1 |
| 20260903122932 | 81 | 79 | 3.0 | 4.0 | 0.04 | 0.12 | 0.12 | 93 | 1012.2 |
| 20260903122831 | 81 | 102 | 2.0 | 4.0 | 0.04 | 0.12 | 0.12 | 93 | 1012.1 |
| 20260903122730 | 81 | 103 | 2.0 | 4.0 | 0.05 | 0.12 | 0.12 | 93 | 1012.0 |
| 20260903122631 | 81 | 103 | 3.0 | 4.0 | 0.05 | 0.12 | 0.12 | 93 | 1012.1 |
| 20260903122532 | 81 | 107 | 3.0 | 4.0 | 0.06 | 0.12 | 0.12 | 93 | 1012.1 |
| 20260903122431 | 81 | 103 | 2.0 | 4.0 | 0.06 | 0.12 | 0.12 | 93 | 1012.1 |
| 20260903122331 | 81 | 103 | 2.0 | 4.0 | 0.07 | 0.12 | 0.12 | 93 | 1012.0 |
| 20260903122231 | 81 | 97 | 2.0 | 4.0 | 0.07 | 0.12 | 0.12 | 93 | 1012.0 |
| 20260903122131 | 81 | 94 | 2.0 | 4.0 | 0.08 | 0.12 | 0.12 | 93 | 1012.0 |
| 20260903122031 | 81 | 137 | 1.0 | 4.0 | 0.09 | 0.12 | 0.12 | 93 | 1011.9 |
| 20260903121931 | 81 | 149 | 2.0 | 5.0 | 0.09 | 0.12 | 0.12 | 93 | 1011.8 |
| 20260903121833 | 81 | 161 | 2.0 | 6.0 | 0.10 | 0.12 | 0.12 | 93 | 1011.8 |
| 20260903121732 | 81 | 128 | 2.0 | 9.0 | 0.10 | 0.12 | 0.12 | 93 | 1011.8 |
| 20260903121633 | 81 | 127 | 2.0 | 9.0 | 0.10 | 0.12 | 0.12 | 93 | 1011.8 |
| 20260903121532 | 81 | 161 | 2.0 | 9.0 | 0.10 | 0.12 | 0.12 | 93 | 1011.7 |
| 20260903121432 | 81 | 147 | 2.0 | 9.0 | 0.11 | 0.12 | 0.12 | 93 | 1011.7 |
| 20260903121331 | 81 | 131 | 2.0 | 9.0 | 0.11 | 0.12 | 0.12 | 93 | 1011.7 |
| 20260903121231 | 81 | 138 | 2.0 | 9.0 | 0.11 | 0.12 | 0.12 | 93 | 1011.7 |
| 20260903121131 | 81 | 149 | 3.0 | 9.0 | 0.11 | 0.12 | 0.12 | 93 | 1011.6 |
| 20260903121031 | 81 | 135 | 4.0 | 9.0 | 0.11 | 0.12 | 0.12 | 93 | 1011.6 |
| 20260903120931 | 81 | 145 | 3.0 | 9.0 | 0.11 | 0.12 | 0.12 | 93 | 1011.6 |
| 20260903120831 | 81 | 148 | 2.0 | 9.0 | 0.12 | 0.12 | 0.12 | 93 | 1011.5 |
| 20260903120731 | 81 | 93 | 1.0 | 5.0 | 0.12 | 0.12 | 0.12 | 93 | 1011.6 |
| 20260903120632 | 81 | 93 | 1.0 | 5.0 | 0.12 | 0.12 | 0.12 | 93 | 1011.6 |
| 20260903120531 | 81 | 93 | 1.0 | 5.0 | 0.12 | 0.12 | 0.12 | 93 | 1011.6 |
| 20260903120432 | 81 | 110 | 1.0 | 5.0 | 0.12 | 0.12 | 0.12 | 93 | 1011.7 |
| 20260903120331 | 81 | 130 | 2.0 | 5.0 | 0.12 | 0.12 | 0.12 | 93 | 1011.7 |
| 20260903120233 | 81 | 130 | 2.0 | 5.0 | 0.12 | 0.12 | 0.12 | 93 | 1011.7 |
| 20260903120131 | 81 | 94 | 3.0 | 5.0 | 0.12 | 0.12 | 0.12 | 93 | 1011.8 |
| 20260903120032 | 81 | 94 | 3.0 | 5.0 | 0.12 | 0.12 | 0.12 | 93 | 1011.8 |
| 20260903115933 | 81 | 96 | 2.0 | 5.0 | 0.12 | 0.00 | 0.12 | 93 | 1011.8 |
| 20260903115832 | 81 | 48 | 2.0 | 5.0 | 0.12 | 0.00 | 0.11 | 93 | 1011.9 |
| 20260903115732 | 81 | 48 | 2.0 | 5.0 | 0.11 | 0.00 | 0.11 | 92 | 1011.9 |
| 20260903115631 | 81 | 47 | 3.0 | 5.0 | 0.11 | 0.00 | 0.11 | 92 | 1011.8 |
| 20260903115533 | 81 | 47 | 3.0 | 5.0 | 0.11 | 0.00 | 0.11 | 92 | 1011.9 |
| 20260903115431 | 81 | 47 | 3.0 | 5.0 | 0.11 | 0.00 | 0.11 | 92 | 1011.9 |
| 20260903115332 | 81 | 47 | 3.0 | 5.0 | 0.11 | 0.00 | 0.11 | 92 | 1011.9 |
| 20260903115230 | 82 | 47 | 4.0 | 5.0 | 0.11 | 0.00 | 0.11 | 92 | 1011.9 |
| 20260903115132 | 82 | 45 | 4.0 | 5.0 | 0.11 | 0.00 | 0.11 | 92 | 1011.9 |
| 20260903115032 | 82 | 41 | 4.0 | 5.0 | 0.11 | 0.00 | 0.11 | 92 | 1011.9 |
| 20260903114932 | 82 | 35 | 4.0 | 5.0 | 0.11 | 0.00 | 0.11 | 92 | 1011.9 |
| 20260903114830 | 82 | 45 | 4.0 | 5.0 | 0.11 | 0.00 | 0.11 | 92 | 1011.8 |
| 20260903114733 | 82 | 45 | 4.0 | 5.0 | 0.11 | 0.00 | 0.11 | 92 | 1011.8 |
| 20260903114632 | 82 | 45 | 3.0 | 4.0 | 0.11 | 0.00 | 0.11 | 92 | 1011.8 |
| 20260903114532 | 82 | 45 | 3.0 | 4.0 | 0.11 | 0.00 | 0.11 | 91 | 1011.8 |
| 20260903114431 | 82 | 45 | 3.0 | 4.0 | 0.11 | 0.00 | 0.11 | 91 | 1011.7 |
| 20260903114331 | 82 | 58 | 2.0 | 5.0 | 0.11 | 0.00 | 0.11 | 91 | 1011.8 |
| 20260903114227 | 82 | 120 | 2.0 | 5.0 | 0.11 | 0.00 | 0.10 | 91 | 1011.6 |
| 20260903114127 | 82 | 121 | 1.0 | 10.0 | 0.11 | 0.00 | 0.10 | 91 | 1011.6 |
| 20260903114025 | 82 | 121 | 1.0 | 10.0 | 0.10 | 0.00 | 0.10 | 91 | 1011.6 |
| 20260903113923 | 82 | 121 | 2.0 | 10.0 | 0.10 | 0.00 | 0.10 | 91 | 1011.6 |
| 20260903113822 | 82 | 121 | 2.0 | 10.0 | 0.10 | 0.00 | 0.10 | 91 | 1011.5 |
| 20260903113720 | 82 | 123 | 1.0 | 10.0 | 0.10 | 0.00 | 0.10 | 91 | 1011.6 |
| 20260903113619 | 82 | 121 | 2.0 | 10.0 | 0.10 | 0.00 | 0.10 | 91 | 1011.5 |
| 20260903113517 | 82 | 118 | 2.0 | 10.0 | 0.10 | 0.00 | 0.10 | 90 | 1011.6 |
| 20260903113415 | 82 | 162 | 3.0 | 10.0 | 0.10 | 0.00 | 0.10 | 90 | 1011.5 |
| 20260903113314 | 82 | 183 | 4.0 | 10.0 | 0.09 | 0.00 | 0.09 | 90 | 1011.6 |
| 20260903113212 | 82 | 179 | 4.0 | 10.0 | 0.09 | 0.00 | 0.09 | 90 | 1011.5 |
| 20260903113111 | 82 | 158 | 3.0 | 7.0 | 0.09 | 0.00 | 0.09 | 90 | 1011.5 |
| 20260903113012 | 82 | 183 | 3.0 | 11.0 | 0.08 | 0.00 | 0.08 | 90 | 1011.5 |
| 20260903112912 | 82 | 168 | 3.0 | 11.0 | 0.08 | 0.00 | 0.08 | 90 | 1011.5 |
| 20260903112812 | 83 | 166 | 3.0 | 11.0 | 0.08 | 0.00 | 0.08 | 89 | 1011.4 |
| 20260903112712 | 83 | 165 | 4.0 | 11.0 | 0.07 | 0.00 | 0.07 | 89 | 1011.5 |
| 20260903112613 | 83 | 178 | 5.0 | 11.0 | 0.07 | 0.00 | 0.06 | 89 | 1011.6 |
| 20260903112513 | 83 | 243 | 4.0 | 11.0 | 0.06 | 0.00 | 0.06 | 89 | 1011.6 |
| 20260903112412 | 83 | 193 | 4.0 | 11.0 | 0.05 | 0.00 | 0.05 | 89 | 1011.6 |
| 20260903112312 | 83 | 183 | 5.0 | 11.0 | 0.05 | 0.00 | 0.04 | 89 | 1011.6 |
| 20260903112211 | 83 | 195 | 6.0 | 11.0 | 0.05 | 0.00 | 0.04 | 89 | 1011.6 |
| 20260903112111 | 83 | 175 | 6.0 | 11.0 | 0.04 | 0.00 | 0.04 | 89 | 1011.6 |
| 20260903112013 | 83 | 178 | 5.0 | 10.0 | 0.03 | 0.00 | 0.03 | 89 | 1011.6 |
| 20260903111912 | 83 | 179 | 6.0 | 10.0 | 0.03 | 0.00 | 0.03 | 89 | 1011.6 |
| 20260903111812 | 83 | 171 | 7.0 | 10.0 | 0.02 | 0.00 | 0.02 | 88 | 1011.7 |
| 20260903111711 | 83 | 193 | 6.0 | 10.0 | 0.02 | 0.00 | 0.02 | 89 | 1011.7 |
| 20260903111611 | 83 | 230 | 4.0 | 10.0 | 0.02 | 0.00 | 0.02 | 89 | 1011.7 |
| 20260903111513 | 83 | 227 | 5.0 | 10.0 | 0.02 | 0.00 | 0.02 | 88 | 1011.7 |
| 20260903111411 | 83 | 0 | 4.0 | 10.0 | 0.01 | 0.00 | 0.01 | 88 | 1011.7 |
| 20260903111311 | 83 | 0 | 4.0 | 10.0 | 0.01 | 0.00 | 0.01 | 88 | 1011.7 |
| 20260903111211 | 83 | 237 | 6.0 | 10.0 | 0.01 | 0.00 | 0.01 | 88 | 1011.7 |
| 20260903111113 | 83 | 238 | 6.0 | 10.0 | 0.01 | 0.00 | 0.01 | 88 | 1011.7 |
| 20260903111011 | 83 | 190 | 6.0 | 10.0 | 0.01 | 0.00 | 0.01 | 88 | 1011.7 |
| 20260903110912 | 83 | 231 | 6.0 | 10.0 | 0.01 | 0.00 | 0.00 | 88 | 1011.7 |
| 20260903110812 | 83 | 257 | 5.0 | 7.0 | 0.00 | 0.00 | 0.00 | 88 | 1011.8 |
| 20260903110712 | 83 | 217 | 4.0 | 5.0 | 0.00 | 0.00 | 0.00 | 88 | 1011.7 |
| 20260903110611 | 83 | 171 | 3.0 | 5.0 | 0.00 | 0.00 | 0.00 | 88 | 1011.7 |
| 20260903110511 | 83 | 183 | 2.0 | 5.0 | 0.00 | 0.00 | 0.00 | 88 | 1011.7 |
| 20260903110412 | 83 | 180 | 2.0 | 5.0 | 0.00 | 0.00 | 0.00 | 88 | 1011.6 |
| 20260903110311 | 83 | 183 | 1.0 | 5.0 | 0.00 | 0.00 | 0.00 | 88 | 1011.6 |
| 20260903110211 | 83 | 134 | 1.0 | 5.0 | 0.00 | 0.00 | 0.00 | 88 | 1011.6 |
| 20260903110113 | 83 | 152 | 2.0 | 5.0 | 0.00 | 0.00 | 0.00 | 88 | 1011.7 |
| 20260903110012 | 83 | 196 | 3.0 | 5.0 | 0.00 | 0.00 | 0.00 | 88 | 1011.6 |
| 20260903105911 | 83 | 190 | 2.0 | 5.0 | 0.00 | 0.00 | 0.00 | 88 | 1011.6 |
| 20260903105812 | 83 | 161 | 1.0 | 5.0 | 0.00 | 0.00 | 0.00 | 88 | 1011.7 |
| 20260903105712 | 83 | 162 | 2.0 | 5.0 | 0.00 | 0.00 | 0.00 | 88 | 1011.6 |
| 20260903105611 | 83 | 188 | 3.0 | 5.0 | 0.00 | 0.00 | 0.00 | 88 | 1011.6 |
| 20260903105512 | 83 | 159 | 2.0 | 5.0 | 0.00 | 0.00 | 0.00 | 88 | 1011.6 |
| 20260903105412 | 83 | 87 | 2.0 | 5.0 | 0.00 | 0.00 | 0.00 | 88 | 1011.6 |
| 20260903105311 | 83 | 154 | 2.0 | 4.0 | 0.00 | 0.00 | 0.00 | 88 | 1011.6 |
| 20260903105211 | 83 | 162 | 2.0 | 4.0 | 0.00 | 0.00 | 0.00 | 88 | 1011.6 |
| 20260903105112 | 83 | 171 | 2.0 | 4.0 | 0.00 | 0.00 | 0.00 | 88 | 1011.5 |
| 20260903105011 | 83 | 189 | 2.0 | 5.0 | 0.00 | 0.00 | 0.00 | 88 | 1011.6 |
| 20260903104911 | 83 | 162 | 1.0 | 5.0 | 0.00 | 0.00 | 0.00 | 88 | 1011.6 |
| 20260903104811 | 83 | 166 | 1.0 | 5.0 | 0.00 | 0.00 | 0.00 | 88 | 1011.6 |
| 20260903104712 | 83 | 165 | 2.0 | 5.0 | 0.00 | 0.00 | 0.00 | 88 | 1011.6 |
| 20260903104611 | 83 | 171 | 2.0 | 5.0 | 0.00 | 0.00 | 0.00 | 88 | 1011.6 |
| 20260903104510 | 83 | 133 | 2.0 | 5.0 | 0.00 | 0.00 | 0.00 | 88 | 1011.6 |
| 20260903104410 | 83 | 165 | 2.0 | 5.0 | 0.00 | 0.00 | 0.00 | 88 | 1011.5 |
| 20260903104311 | 83 | 180 | 3.0 | 5.0 | 0.00 | 0.00 | 0.00 | 88 | 1011.5 |
| 20260903104211 | 83 | 140 | 3.0 | 5.0 | 0.00 | 0.00 | 0.00 | 88 | 1011.5 |
| 20260903104111 | 83 | 148 | 3.0 | 5.0 | 0.00 | 0.00 | 0.00 | 88 | 1011.5 |
| 20260903104012 | 83 | 104 | 2.0 | 5.0 | 0.00 | 0.00 | 0.00 | 88 | 1011.5 |
| 20260903103911 | 83 | 151 | 3.0 | 5.0 | 0.00 | 0.00 | 0.00 | 88 | 1011.4 |
| 20260903103811 | 83 | 134 | 3.0 | 5.0 | 0.00 | 0.00 | 0.00 | 88 | 1011.5 |
| 20260903103711 | 83 | 141 | 3.0 | 5.0 | 0.00 | 0.00 | 0.00 | 88 | 1011.5 |
| 20260903103611 | 83 | 149 | 3.0 | 5.0 | 0.00 | 0.00 | 0.00 | 88 | 1011.5 |
| 20260903103512 | 83 | 179 | 3.0 | 5.0 | 0.00 | 0.00 | 0.00 | 88 | 1011.4 |
| 20260903103411 | 83 | 144 | 3.0 | 5.0 | 0.00 | 0.00 | 0.00 | 88 | 1011.5 |
| 20260903103311 | 83 | 137 | 2.0 | 5.0 | 0.00 | 0.00 | 0.00 | 88 | 1011.5 |
| 20260903103211 | 83 | 128 | 2.0 | 5.0 | 0.00 | 0.00 | 0.00 | 88 | 1011.5 |
| 20260903103111 | 83 | 155 | 2.0 | 5.0 | 0.00 | 0.00 | 0.00 | 88 | 1011.5 |
| 20260903103012 | 83 | 157 | 2.0 | 5.0 | 0.00 | 0.00 | 0.00 | 88 | 1011.5 |
| 20260903102911 | 83 | 159 | 2.0 | 5.0 | 0.00 | 0.00 | 0.00 | 88 | 1011.4 |
| 20260903102809 | 83 | 140 | 1.0 | 5.0 | 0.00 | 0.00 | 0.00 | 88 | 1011.4 |
| 20260903102709 | 83 | 161 | 1.0 | 5.0 | 0.00 | 0.00 | 0.00 | 88 | 1011.4 |
| 20260903102612 | 83 | 158 | 2.0 | 5.0 | 0.00 | 0.00 | 0.00 | 88 | 1011.4 |
| 20260903102511 | 83 | 157 | 2.0 | 5.0 | 0.00 | 0.00 | 0.00 | 88 | 1011.4 |
| 20260903102411 | 83 | 157 | 1.0 | 5.0 | 0.00 | 0.00 | 0.00 | 88 | 1011.5 |
| 20260903102311 | 83 | 144 | 2.0 | 5.0 | 0.00 | 0.00 | 0.00 | 87 | 1011.5 |
| 20260903102211 | 83 | 149 | 2.0 | 5.0 | 0.00 | 0.00 | 0.00 | 87 | 1011.5 |
| 20260903102111 | 83 | 133 | 2.0 | 6.0 | 0.00 | 0.00 | 0.00 | 87 | 1011.4 |
| 20260903102011 | 83 | 130 | 2.0 | 6.0 | 0.00 | 0.00 | 0.00 | 87 | 1011.4 |
| 20260903101912 | 83 | 141 | 1.0 | 6.0 | 0.00 | 0.00 | 0.00 | 87 | 1011.4 |
| 20260903101811 | 83 | 141 | 1.0 | 6.0 | 0.00 | 0.00 | 0.00 | 87 | 1011.4 |
| 20260903101710 | 83 | 158 | 2.0 | 6.0 | 0.00 | 0.00 | 0.00 | 87 | 1011.4 |
| 20260903101611 | 83 | 169 | 2.0 | 6.0 | 0.00 | 0.00 | 0.00 | 87 | 1011.4 |
| 20260903101511 | 83 | 94 | 1.0 | 7.0 | 0.00 | 0.00 | 0.00 | 87 | 1011.4 |
| 20260903101408 | 83 | 128 | 2.0 | 7.0 | 0.00 | 0.00 | 0.00 | 87 | 1011.4 |
| 20260903101304 | 83 | 134 | 3.0 | 7.0 | 0.00 | 0.00 | 0.00 | 87 | 1011.4 |
| 20260903101203 | 84 | 168 | 2.0 | 7.0 | 0.00 | 0.00 | 0.00 | 87 | 1011.3 |
| 20260903101102 | 84 | 148 | 3.0 | 7.0 | 0.00 | 0.00 | 0.00 | 87 | 1011.3 |
| 20260903101004 | 83 | 114 | 3.0 | 7.0 | 0.00 | 0.00 | 0.00 | 87 | 1011.3 |
| 20260903100902 | 84 | 173 | 3.0 | 7.0 | 0.00 | 0.00 | 0.00 | 87 | 1011.4 |
| 20260903100803 | 84 | 147 | 2.0 | 7.0 | 0.00 | 0.00 | 0.00 | 87 | 1011.3 |
| 20260903100703 | 84 | 130 | 3.0 | 7.0 | 0.00 | 0.00 | 0.00 | 87 | 1011.4 |
| 20260903100603 | 84 | 125 | 3.0 | 7.0 | 0.00 | 0.00 | 0.00 | 87 | 1011.4 |
| 20260903100502 | 84 | 172 | 3.0 | 6.0 | 0.00 | 0.00 | 0.00 | 87 | 1011.3 |
| 20260903100402 | 84 | 179 | 2.0 | 6.0 | 0.00 | 0.00 | 0.00 | 87 | 1011.3 |
| 20260903100302 | 84 | 185 | 2.0 | 6.0 | 0.00 | 0.00 | 0.00 | 87 | 1011.3 |
| 20260903100202 | 84 | 128 | 3.0 | 7.0 | 0.00 | 0.00 | 0.00 | 87 | 1011.3 |
| 20260903100004 | 84 | 168 | 4.0 | 7.0 | 0.00 | 0.00 | 0.00 | 87 | 1011.3 |
| 20260903095901 | 84 | 148 | 3.0 | 7.0 | 0.00 | 0.00 | 0.00 | 87 | 1011.2 |
| 20260903095801 | 84 | 199 | 4.0 | 7.0 | 0.00 | 0.00 | 0.00 | 87 | 1011.3 |
| 20260903095703 | 84 | 183 | 3.0 | 7.0 | 0.00 | 0.00 | 0.00 | 87 | 1011.3 |
| 20260903095603 | 84 | 178 | 3.0 | 7.0 | 0.00 | 0.00 | 0.00 | 87 | 1011.2 |
| 20260903095502 | 84 | 192 | 2.0 | 7.0 | 0.00 | 0.00 | 0.00 | 86 | 1011.3 |
| 20260903095404 | 84 | 193 | 3.0 | 7.0 | 0.00 | 0.00 | 0.00 | 86 | 1011.2 |
| 20260903095305 | 84 | 140 | 3.0 | 7.0 | 0.00 | 0.00 | 0.00 | 86 | 1011.3 |
| 20260903095202 | 84 | 207 | 3.0 | 7.0 | 0.00 | 0.00 | 0.00 | 87 | 1011.2 |
| 20260903095102 | 84 | 144 | 4.0 | 7.0 | 0.00 | 0.00 | 0.00 | 87 | 1011.2 |
| 20260903095005 | 84 | 199 | 3.0 | 7.0 | 0.00 | 0.00 | 0.00 | 87 | 1011.2 |
| 20260903094904 | 84 | 186 | 3.0 | 7.0 | 0.00 | 0.00 | 0.00 | 87 | 1011.3 |
| 20260903094801 | 84 | 169 | 3.0 | 7.0 | 0.00 | 0.00 | 0.00 | 87 | 1011.3 |
| 20260903094659 | 84 | 182 | 2.0 | 7.0 | 0.00 | 0.00 | 0.00 | 87 | 1011.2 |
| 20260903094557 | 84 | 169 | 4.0 | 7.0 | 0.00 | 0.00 | 0.00 | 87 | 1011.2 |
| 20260903094456 | 84 | 186 | 4.0 | 7.0 | 0.00 | 0.00 | 0.00 | 86 | 1011.3 |
| 20260903094355 | 84 | 206 | 3.0 | 7.0 | 0.00 | 0.00 | 0.00 | 86 | 1011.2 |
| 20260903094252 | 84 | 125 | 4.0 | 6.0 | 0.00 | 0.00 | 0.00 | 86 | 1011.2 |
| 20260903094151 | 84 | 185 | 4.0 | 6.0 | 0.00 | 0.00 | 0.00 | 86 | 1011.2 |
| 20260903094050 | 84 | 144 | 3.0 | 11.0 | 0.00 | 0.00 | 0.00 | 86 | 1011.2 |
| 20260903093949 | 84 | 141 | 3.0 | 11.0 | 0.00 | 0.00 | 0.00 | 86 | 1011.3 |
| 20260903093846 | 84 | 131 | 3.0 | 11.0 | 0.00 | 0.00 | 0.00 | 86 | 1011.3 |
| 20260903093746 | 84 | 130 | 2.0 | 11.0 | 0.00 | 0.00 | 0.00 | 86 | 1011.2 |
| 20260903093643 | 84 | 111 | 3.0 | 11.0 | 0.00 | 0.00 | 0.00 | 86 | 1011.2 |
| 20260903093542 | 84 | 166 | 3.0 | 11.0 | 0.00 | 0.00 | 0.00 | 86 | 1011.3 |
| 20260903093441 | 84 | 206 | 3.0 | 11.0 | 0.00 | 0.00 | 0.00 | 86 | 1011.2 |
| 20260903093339 | 84 | 169 | 2.0 | 11.0 | 0.00 | 0.00 | 0.00 | 86 | 1011.3 |
| 20260903093234 | 84 | 161 | 4.0 | 11.0 | 0.00 | 0.00 | 0.00 | 86 | 1011.4 |
| 20260903093132 | 84 | 158 | 6.0 | 11.0 | 0.00 | 0.00 | 0.00 | 86 | 1011.2 |
| 20260903093032 | 84 | 128 | 4.0 | 9.0 | 0.00 | 0.00 | 0.00 | 86 | 1011.3 |
| 20260903092932 | 84 | 134 | 3.0 | 7.0 | 0.00 | 0.00 | 0.00 | 86 | 1011.2 |
| 20260903092831 | 84 | 154 | 3.0 | 7.0 | 0.00 | 0.00 | 0.00 | 87 | 1011.3 |
| 20260903092732 | 84 | 171 | 4.0 | 7.0 | 0.00 | 0.00 | 0.00 | 86 | 1011.3 |
| 20260903092631 | 84 | 179 | 3.0 | 7.0 | 0.00 | 0.00 | 0.00 | 86 | 1011.3 |
| 20260903092532 | 84 | 182 | 4.0 | 7.0 | 0.00 | 0.00 | 0.00 | 87 | 1011.3 |
| 20260903092431 | 84 | 168 | 5.0 | 7.0 | 0.00 | 0.00 | 0.00 | 87 | 1011.3 |
| 20260903092331 | 84 | 173 | 4.0 | 7.0 | 0.00 | 0.00 | 0.00 | 87 | 1011.4 |
| 20260903092232 | 84 | 118 | 3.0 | 7.0 | 0.00 | 0.00 | 0.00 | 87 | 1011.3 |
| 20260903092133 | 84 | 140 | 3.0 | 7.0 | 0.00 | 0.00 | 0.00 | 87 | 1011.3 |
| 20260903092031 | 84 | 190 | 4.0 | 9.0 | 0.00 | 0.00 | 0.00 | 87 | 1011.3 |
| 20260903091931 | 84 | 182 | 4.0 | 9.0 | 0.00 | 0.00 | 0.00 | 87 | 1011.3 |
| 20260903091831 | 84 | 190 | 3.0 | 9.0 | 0.00 | 0.00 | 0.00 | 87 | 1011.3 |
| 20260903091731 | 84 | 165 | 4.0 | 9.0 | 0.00 | 0.00 | 0.00 | 87 | 1011.4 |
| 20260903091631 | 84 | 172 | 4.0 | 9.0 | 0.00 | 0.00 | 0.00 | 87 | 1011.4 |
| 20260903091532 | 84 | 179 | 3.0 | 10.0 | 0.00 | 0.00 | 0.00 | 87 | 1011.3 |
| 20260903091433 | 84 | 165 | 3.0 | 10.0 | 0.00 | 0.00 | 0.00 | 87 | 1011.3 |
| 20260903091330 | 84 | 127 | 4.0 | 10.0 | 0.00 | 0.00 | 0.00 | 87 | 1011.4 |
| 20260903091230 | 84 | 227 | 4.0 | 10.0 | 0.00 | 0.00 | 0.00 | 87 | 1011.3 |
| 20260903091131 | 83 | 175 | 4.0 | 10.0 | 0.00 | 0.00 | 0.00 | 87 | 1011.4 |
| 20260903091031 | 83 | 137 | 5.0 | 10.0 | 0.00 | 0.00 | 0.00 | 87 | 1011.4 |
| 20260903090931 | 83 | 173 | 5.0 | 10.0 | 0.00 | 0.00 | 0.00 | 87 | 1011.4 |
| 20260903090833 | 83 | 179 | 3.0 | 10.0 | 0.00 | 0.00 | 0.00 | 87 | 1011.4 |
| 20260903090732 | 83 | 120 | 4.0 | 10.0 | 0.00 | 0.00 | 0.00 | 87 | 1011.3 |
| 20260903090631 | 83 | 166 | 5.0 | 10.0 | 0.00 | 0.00 | 0.00 | 87 | 1011.4 |
| 20260903090532 | 83 | 193 | 4.0 | 7.0 | 0.00 | 0.00 | 0.00 | 87 | 1011.4 |
| 20260903090431 | 83 | 145 | 4.0 | 7.0 | 0.00 | 0.00 | 0.00 | 87 | 1011.4 |
| 20260903090331 | 83 | 107 | 3.0 | 7.0 | 0.00 | 0.00 | 0.00 | 87 | 1011.4 |
| 20260903090230 | 83 | 125 | 2.0 | 7.0 | 0.00 | 0.00 | 0.00 | 87 | 1011.3 |
| 20260903090132 | 83 | 130 | 3.0 | 7.0 | 0.00 | 0.00 | 0.00 | 87 | 1011.4 |
| 20260903090032 | 83 | 152 | 4.0 | 7.0 | 0.00 | 0.00 | 0.00 | 87 | 1011.3 |
| 20260903085932 | 83 | 103 | 3.0 | 7.0 | 0.00 | 0.00 | 0.00 | 87 | 1011.3 |
| 20260903085833 | 83 | 144 | 3.0 | 7.0 | 0.00 | 0.00 | 0.00 | 87 | 1011.3 |
| 20260903085731 | 83 | 138 | 3.0 | 9.0 | 0.00 | 0.00 | 0.00 | 87 | 1011.3 |
| 20260903085631 | 83 | 135 | 3.0 | 9.0 | 0.00 | 0.00 | 0.00 | 87 | 1011.3 |
| 20260903085531 | 83 | 166 | 4.0 | 9.0 | 0.00 | 0.00 | 0.00 | 87 | 1011.3 |
| 20260903085432 | 83 | 147 | 4.0 | 9.0 | 0.00 | 0.00 | 0.00 | 87 | 1011.3 |
| 20260903085332 | 83 | 127 | 3.0 | 9.0 | 0.00 | 0.00 | 0.00 | 87 | 1011.3 |
| 20260903085232 | 83 | 127 | 3.0 | 9.0 | 0.00 | 0.00 | 0.00 | 87 | 1011.3 |
| 20260903085132 | 83 | 127 | 3.0 | 9.0 | 0.00 | 0.00 | 0.00 | 87 | 1011.2 |
| 20260903085032 | 83 | 127 | 3.0 | 10.0 | 0.00 | 0.00 | 0.00 | 87 | 1011.2 |
| 20260903084923 | 83 | 164 | 5.0 | 10.0 | 0.00 | 0.00 | 0.00 | 87 | 1011.2 |
| 20260903084823 | 83 | 118 | 4.0 | 10.0 | 0.00 | 0.00 | 0.00 | 87 | 1011.2 |
| 20260903084721 | 83 | 173 | 3.0 | 10.0 | 0.00 | 0.00 | 0.00 | 87 | 1011.3 |
| 20260903084619 | 84 | 178 | 3.0 | 10.0 | 0.00 | 0.00 | 0.00 | 87 | 1011.2 |
| 20260903084519 | 84 | 133 | 2.0 | 10.0 | 0.00 | 0.00 | 0.00 | 87 | 1011.2 |
| 20260903084416 | 84 | 157 | 3.0 | 10.0 | 0.00 | 0.00 | 0.00 | 87 | 1011.3 |
| 20260903084315 | 84 | 113 | 4.0 | 10.0 | 0.00 | 0.00 | 0.00 | 87 | 1011.2 |
| 20260903084215 | 84 | 116 | 4.0 | 10.0 | 0.00 | 0.00 | 0.00 | 87 | 1011.3 |
| 20260903084114 | 84 | 149 | 4.0 | 7.0 | 0.00 | 0.00 | 0.00 | 87 | 1011.3 |
| 20260903084013 | 84 | 234 | 4.0 | 7.0 | 0.00 | 0.00 | 0.00 | 87 | 1011.2 |
| 20260903083911 | 84 | 141 | 3.0 | 9.0 | 0.00 | 0.00 | 0.00 | 87 | 1011.2 |
| 20260903083809 | 84 | 140 | 2.0 | 9.0 | 0.00 | 0.00 | 0.00 | 87 | 1011.2 |
| 20260903083708 | 84 | 142 | 1.0 | 9.0 | 0.00 | 0.00 | 0.00 | 87 | 1011.2 |
| 20260903083608 | 84 | 164 | 2.0 | 10.0 | 0.00 | 0.00 | 0.00 | 87 | 1011.2 |
| 20260903083508 | 84 | 125 | 4.0 | 10.0 | 0.00 | 0.00 | 0.00 | 87 | 1011.2 |
| 20260903083408 | 84 | 188 | 4.0 | 10.0 | 0.00 | 0.00 | 0.00 | 87 | 1011.2 |
| 20260903083308 | 84 | 157 | 4.0 | 10.0 | 0.00 | 0.00 | 0.00 | 87 | 1011.3 |
| 20260903083209 | 84 | 149 | 4.0 | 10.0 | 0.00 | 0.00 | 0.00 | 87 | 1011.3 |
| 20260903083108 | 84 | 78 | 4.0 | 10.0 | 0.00 | 0.00 | 0.00 | 87 | 1011.2 |
| 20260903083008 | 84 | 159 | 2.0 | 10.0 | 0.00 | 0.00 | 0.00 | 87 | 1011.2 |
| 20260903082908 | 84 | 148 | 3.0 | 10.0 | 0.00 | 0.00 | 0.00 | 87 | 1011.3 |
| 20260903082808 | 84 | 138 | 5.0 | 10.0 | 0.00 | 0.00 | 0.00 | 87 | 1011.3 |
| 20260903082707 | 84 | 210 | 4.0 | 10.0 | 0.00 | 0.00 | 0.00 | 87 | 1011.3 |
| 20260903082607 | 84 | 175 | 2.0 | 7.0 | 0.00 | 0.00 | 0.00 | 87 | 1011.2 |
| 20260903082510 | 84 | 175 | 2.0 | 7.0 | 0.00 | 0.00 | 0.00 | 87 | 1011.3 |
| 20260903082407 | 84 | 171 | 3.0 | 7.0 | 0.00 | 0.00 | 0.00 | 87 | 1011.2 |
| 20260903082310 | 84 | 204 | 3.0 | 7.0 | 0.00 | 0.00 | 0.00 | 87 | 1011.2 |
| 20260903082207 | 84 | 123 | 3.0 | 7.0 | 0.00 | 0.00 | 0.00 | 87 | 1011.3 |
| 20260903082110 | 84 | 178 | 3.0 | 7.0 | 0.00 | 0.00 | 0.00 | 87 | 1011.3 |
| 20260903082009 | 84 | 131 | 4.0 | 7.0 | 0.00 | 0.00 | 0.00 | 87 | 1011.2 |
| 20260903081908 | 84 | 164 | 4.0 | 7.0 | 0.00 | 0.00 | 0.00 | 87 | 1011.2 |
| 20260903081808 | 84 | 199 | 4.0 | 7.0 | 0.00 | 0.00 | 0.00 | 87 | 1011.2 |
| 20260903081707 | 84 | 173 | 4.0 | 7.0 | 0.00 | 0.00 | 0.00 | 87 | 1011.2 |
| 20260903081607 | 84 | 161 | 4.0 | 7.0 | 0.00 | 0.00 | 0.00 | 86 | 1011.2 |
| 20260903081508 | 84 | 134 | 3.0 | 7.0 | 0.00 | 0.00 | 0.00 | 86 | 1011.2 |
| 20260903081410 | 84 | 195 | 2.0 | 7.0 | 0.00 | 0.00 | 0.00 | 86 | 1011.2 |
| 20260903081307 | 84 | 157 | 4.0 | 7.0 | 0.00 | 0.00 | 0.00 | 86 | 1011.2 |
| 20260903081207 | 84 | 164 | 4.0 | 7.0 | 0.00 | 0.00 | 0.00 | 86 | 1011.2 |
| 20260903081108 | 84 | 176 | 2.0 | 9.0 | 0.00 | 0.00 | 0.00 | 86 | 1011.2 |
| 20260903081004 | 84 | 147 | 2.0 | 9.0 | 0.00 | 0.00 | 0.00 | 86 | 1011.1 |
| 20260903080902 | 84 | 149 | 3.0 | 9.0 | 0.00 | 0.00 | 0.00 | 86 | 1011.2 |
| 20260903080804 | 84 | 152 | 2.0 | 9.0 | 0.00 | 0.00 | 0.00 | 86 | 1011.2 |
| 20260903080702 | 84 | 237 | 4.0 | 9.0 | 0.00 | 0.00 | 0.00 | 86 | 1011.1 |
| 20260903080603 | 84 | 154 | 4.0 | 10.0 | 0.00 | 0.00 | 0.00 | 86 | 1011.2 |
| 20260903080503 | 84 | 155 | 4.0 | 10.0 | 0.00 | 0.00 | 0.00 | 86 | 1011.1 |
| 20260903080404 | 84 | 166 | 3.0 | 10.0 | 0.00 | 0.00 | 0.00 | 86 | 1011.2 |
| 20260903080302 | 84 | 186 | 4.0 | 10.0 | 0.00 | 0.00 | 0.00 | 86 | 1011.2 |
| 20260903080203 | 84 | 176 | 4.0 | 10.0 | 0.00 | 0.00 | 0.00 | 86 | 1011.1 |
| 20260903080103 | 84 | 175 | 5.0 | 10.0 | 0.00 | 0.00 | 0.00 | 86 | 1011.1 |
| 20260903080003 | 84 | 193 | 5.0 | 12.0 | 0.00 | 0.00 | 0.00 | 86 | 1011.1 |
| 20260903075903 | 84 | 189 | 5.0 | 12.0 | 0.00 | 0.00 | 0.00 | 86 | 1011.1 |
| 20260903075802 | 84 | 186 | 6.0 | 12.0 | 0.00 | 0.00 | 0.00 | 86 | 1011.1 |
| 20260903075704 | 84 | 176 | 6.0 | 12.0 | 0.00 | 0.00 | 0.00 | 86 | 1011.1 |
| 20260903075602 | 84 | 176 | 6.0 | 12.0 | 0.00 | 0.00 | 0.00 | 86 | 1011.1 |
| 20260903075502 | 84 | 178 | 6.0 | 12.0 | 0.00 | 0.00 | 0.00 | 86 | 1011.2 |
| 20260903075403 | 84 | 195 | 4.0 | 12.0 | 0.00 | 0.00 | 0.00 | 86 | 1011.2 |
| 20260903075306 | 84 | 158 | 4.0 | 12.0 | 0.00 | 0.00 | 0.00 | 86 | 1011.1 |
| 20260903075203 | 84 | 168 | 6.0 | 12.0 | 0.00 | 0.00 | 0.00 | 86 | 1011.2 |
| 20260903075103 | 84 | 193 | 6.0 | 12.0 | 0.00 | 0.00 | 0.00 | 86 | 1011.2 |
| 20260903075005 | 84 | 141 | 6.0 | 11.0 | 0.00 | 0.00 | 0.00 | 86 | 1011.1 |
| 20260903074902 | 84 | 171 | 4.0 | 11.0 | 0.00 | 0.00 | 0.00 | 86 | 1011.2 |
| 20260903074802 | 84 | 199 | 3.0 | 9.0 | 0.00 | 0.00 | 0.00 | 86 | 1011.1 |
| 20260903074704 | 84 | 189 | 4.0 | 11.0 | 0.00 | 0.00 | 0.00 | 86 | 1011.1 |
| 20260903074601 | 84 | 189 | 5.0 | 11.0 | 0.00 | 0.00 | 0.00 | 86 | 1011.1 |
| 20260903074503 | 84 | 183 | 4.0 | 11.0 | 0.00 | 0.00 | 0.00 | 86 | 1011.1 |
| 20260903074403 | 84 | 183 | 4.0 | 11.0 | 0.00 | 0.00 | 0.00 | 86 | 1011.1 |
| 20260903074303 | 84 | 161 | 4.0 | 11.0 | 0.00 | 0.00 | 0.00 | 86 | 1011.1 |
| 20260903074202 | 84 | 123 | 4.0 | 11.0 | 0.00 | 0.00 | 0.00 | 86 | 1011.1 |
| 20260903074102 | 84 | 155 | 5.0 | 11.0 | 0.00 | 0.00 | 0.00 | 86 | 1011.2 |
| 20260903074004 | 84 | 157 | 4.0 | 11.0 | 0.00 | 0.00 | 0.00 | 86 | 1011.1 |
| 20260903073902 | 84 | 109 | 4.0 | 11.0 | 0.00 | 0.00 | 0.00 | 86 | 1011.0 |
| 20260903073802 | 84 | 142 | 4.0 | 11.0 | 0.00 | 0.00 | 0.00 | 86 | 1011.1 |
| 20260903073704 | 84 | 178 | 3.0 | 9.0 | 0.00 | 0.00 | 0.00 | 86 | 1011.1 |
| 20260903073602 | 84 | 135 | 4.0 | 9.0 | 0.00 | 0.00 | 0.00 | 86 | 1011.1 |
| 20260903073501 | 84 | 190 | 5.0 | 11.0 | 0.00 | 0.00 | 0.00 | 86 | 1011.1 |
| 20260903073402 | 84 | 202 | 5.0 | 11.0 | 0.00 | 0.00 | 0.00 | 86 | 1011.2 |
| 20260903073302 | 84 | 161 | 5.0 | 12.0 | 0.00 | 0.00 | 0.00 | 86 | 1011.1 |
| 20260903073202 | 84 | 226 | 6.0 | 12.0 | 0.00 | 0.00 | 0.00 | 86 | 1011.1 |
| 20260903073103 | 84 | 180 | 4.0 | 13.0 | 0.00 | 0.00 | 0.00 | 86 | 1011.1 |
| 20260903073003 | 84 | 193 | 4.0 | 13.0 | 0.00 | 0.00 | 0.00 | 86 | 1011.2 |
| 20260903072903 | 84 | 193 | 4.0 | 13.0 | 0.00 | 0.00 | 0.00 | 86 | 1011.2 |
| 20260903072803 | 84 | 193 | 4.0 | 13.0 | 0.00 | 0.00 | 0.00 | 86 | 1011.1 |
| 20260903072703 | 84 | 200 | 4.0 | 13.0 | 0.00 | 0.00 | 0.00 | 86 | 1011.2 |
| 20260903072603 | 84 | 159 | 4.0 | 13.0 | 0.00 | 0.00 | 0.00 | 86 | 1011.1 |
| 20260903072502 | 84 | 247 | 4.0 | 13.0 | 0.00 | 0.00 | 0.00 | 86 | 1011.1 |
| 20260903072402 | 84 | 151 | 6.0 | 13.0 | 0.00 | 0.00 | 0.00 | 86 | 1011.1 |
| 20260903072306 | 84 | 151 | 7.0 | 13.0 | 0.00 | 0.00 | 0.00 | 86 | 1011.2 |
| 20260903072202 | 84 | 120 | 8.0 | 13.0 | 0.00 | 0.00 | 0.00 | 86 | 1011.1 |
| 20260903072103 | 84 | 173 | 7.0 | 13.0 | 0.00 | 0.00 | 0.00 | 86 | 1011.2 |
| 20260903072004 | 84 | 195 | 6.0 | 13.0 | 0.00 | 0.00 | 0.00 | 86 | 1011.2 |
| 20260903071903 | 84 | 200 | 7.0 | 11.0 | 0.00 | 0.00 | 0.00 | 86 | 1011.1 |
| 20260903071802 | 84 | 175 | 6.0 | 11.0 | 0.00 | 0.00 | 0.00 | 86 | 1011.1 |
| 20260903071702 | 84 | 176 | 6.0 | 10.0 | 0.00 | 0.00 | 0.00 | 86 | 1011.1 |
| 20260903071603 | 84 | 149 | 6.0 | 11.0 | 0.00 | 0.00 | 0.00 | 86 | 1011.1 |
| 20260903071502 | 84 | 197 | 6.0 | 11.0 | 0.00 | 0.00 | 0.00 | 86 | 1011.2 |
| 20260903071401 | 84 | 224 | 6.0 | 11.0 | 0.00 | 0.00 | 0.00 | 86 | 1011.2 |
| 20260903071302 | 84 | 185 | 4.0 | 11.0 | 0.00 | 0.00 | 0.00 | 86 | 1011.1 |
| 20260903071203 | 84 | 86 | 4.0 | 11.0 | 0.00 | 0.00 | 0.00 | 86 | 1011.2 |
| 20260903071101 | 84 | 158 | 4.0 | 11.0 | 0.00 | 0.00 | 0.00 | 86 | 1011.2 |
| 20260903071004 | 84 | 240 | 4.0 | 11.0 | 0.00 | 0.00 | 0.00 | 86 | 1011.2 |
| 20260903070903 | 84 | 138 | 4.0 | 11.0 | 0.00 | 0.00 | 0.00 | 86 | 1011.1 |
| 20260903070802 | 84 | 165 | 6.0 | 11.0 | 0.00 | 0.00 | 0.00 | 86 | 1011.2 |
| 20260903070703 | 84 | 131 | 6.0 | 11.0 | 0.00 | 0.00 | 0.00 | 86 | 1011.2 |
| 20260903070604 | 84 | 147 | 5.0 | 11.0 | 0.00 | 0.00 | 0.00 | 86 | 1011.3 |
| 20260903070502 | 84 | 193 | 4.0 | 11.0 | 0.00 | 0.00 | 0.00 | 86 | 1011.2 |
| 20260903070402 | 84 | 203 | 5.0 | 11.0 | 0.00 | 0.00 | 0.00 | 86 | 1011.2 |
| 20260903070304 | 84 | 164 | 6.0 | 11.0 | 0.00 | 0.00 | 0.00 | 86 | 1011.2 |
| 20260903070203 | 84 | 168 | 6.0 | 11.0 | 0.00 | 0.00 | 0.00 | 86 | 1011.2 |
| 20260903070104 | 84 | 169 | 4.0 | 11.0 | 0.00 | 0.00 | 0.00 | 86 | 1011.2 |
| 20260903070001 | 84 | 134 | 4.0 | 11.0 | 0.00 | 0.00 | 0.00 | 86 | 1011.3 |
| 20260903065903 | 84 | 147 | 5.0 | 13.0 | 0.00 | 0.00 | 0.00 | 86 | 1011.2 |
| 20260903065802 | 84 | 210 | 4.0 | 13.0 | 0.00 | 0.00 | 0.00 | 86 | 1011.3 |
| 20260903065702 | 84 | 168 | 4.0 | 13.0 | 0.00 | 0.00 | 0.00 | 86 | 1011.4 |
| 20260903065604 | 84 | 123 | 4.0 | 13.0 | 0.00 | 0.00 | 0.00 | 86 | 1011.4 |
| 20260903065503 | 84 | 142 | 5.0 | 13.0 | 0.00 | 0.00 | 0.00 | 86 | 1011.4 |
| 20260903065401 | 84 | 204 | 6.0 | 13.0 | 0.00 | 0.00 | 0.00 | 86 | 1011.4 |
| 20260903065305 | 84 | 193 | 6.0 | 13.0 | 0.00 | 0.00 | 0.00 | 86 | 1011.4 |
| 20260903065204 | 84 | 220 | 6.0 | 13.0 | 0.00 | 0.00 | 0.00 | 86 | 1011.5 |
| 20260903065102 | 84 | 168 | 6.0 | 13.0 | 0.00 | 0.00 | 0.00 | 86 | 1011.5 |
| 20260903065002 | 84 | 203 | 6.0 | 13.0 | 0.00 | 0.00 | 0.00 | 86 | 1011.5 |
| 20260903064903 | 84 | 214 | 4.0 | 9.0 | 0.00 | 0.00 | 0.00 | 86 | 1011.5 |
| 20260903064802 | 84 | 164 | 4.0 | 9.0 | 0.00 | 0.00 | 0.00 | 86 | 1011.5 |
| 20260903064701 | 84 | 226 | 5.0 | 9.0 | 0.00 | 0.00 | 0.00 | 86 | 1011.5 |
| 20260903064602 | 84 | 164 | 3.0 | 9.0 | 0.00 | 0.00 | 0.00 | 86 | 1011.6 |
| 20260903064504 | 84 | 97 | 3.0 | 9.0 | 0.00 | 0.00 | 0.00 | 86 | 1011.5 |
| 20260903064403 | 84 | 157 | 4.0 | 11.0 | 0.00 | 0.00 | 0.00 | 86 | 1011.5 |
| 20260903064303 | 84 | 124 | 3.0 | 11.0 | 0.00 | 0.00 | 0.00 | 86 | 1011.5 |
| 20260903064203 | 84 | 161 | 4.0 | 11.0 | 0.00 | 0.00 | 0.00 | 86 | 1011.5 |
| 20260903064102 | 84 | 159 | 5.0 | 11.0 | 0.00 | 0.00 | 0.00 | 86 | 1011.5 |
| 20260903064002 | 84 | 202 | 5.0 | 11.0 | 0.00 | 0.00 | 0.00 | 86 | 1011.6 |
| 20260903063904 | 84 | 176 | 4.0 | 11.0 | 0.00 | 0.00 | 0.00 | 86 | 1011.5 |
| 20260903063802 | 84 | 113 | 3.0 | 11.0 | 0.00 | 0.00 | 0.00 | 86 | 1011.5 |
| 20260903063702 | 84 | 166 | 4.0 | 11.0 | 0.00 | 0.00 | 0.00 | 86 | 1011.5 |
| 20260903063602 | 84 | 148 | 6.0 | 11.0 | 0.00 | 0.00 | 0.00 | 86 | 1011.6 |
| 20260903063504 | 84 | 180 | 5.0 | 11.0 | 0.00 | 0.00 | 0.00 | 86 | 1011.5 |
| 20260903063403 | 84 | 172 | 4.0 | 9.0 | 0.00 | 0.00 | 0.00 | 86 | 1011.6 |
| 20260903063303 | 84 | 164 | 4.0 | 9.0 | 0.00 | 0.00 | 0.00 | 86 | 1011.6 |
| 20260903063203 | 84 | 151 | 4.0 | 9.0 | 0.00 | 0.00 | 0.00 | 86 | 1011.5 |
| 20260903063103 | 84 | 165 | 5.0 | 9.0 | 0.00 | 0.00 | 0.00 | 86 | 1011.6 |
| 20260903063003 | 84 | 135 | 4.0 | 9.0 | 0.00 | 0.00 | 0.00 | 86 | 1011.5 |
| 20260903062903 | 84 | 183 | 4.0 | 9.0 | 0.00 | 0.00 | 0.00 | 86 | 1011.5 |
| 20260903062802 | 84 | 141 | 4.0 | 9.0 | 0.00 | 0.00 | 0.00 | 85 | 1011.6 |
| 20260903062702 | 84 | 96 | 4.0 | 9.0 | 0.00 | 0.00 | 0.00 | 85 | 1011.6 |
| 20260903062601 | 84 | 183 | 4.0 | 9.0 | 0.00 | 0.00 | 0.00 | 85 | 1011.5 |
| 20260903062504 | 84 | 82 | 4.0 | 9.0 | 0.00 | 0.00 | 0.00 | 85 | 1011.5 |
| 20260903062402 | 84 | 114 | 5.0 | 9.0 | 0.00 | 0.00 | 0.00 | 85 | 1011.6 |
| 20260903062305 | 84 | 165 | 4.0 | 9.0 | 0.00 | 0.00 | 0.00 | 85 | 1011.5 |
| 20260903062204 | 84 | 141 | 4.0 | 9.0 | 0.00 | 0.00 | 0.00 | 85 | 1011.5 |
| 20260903062102 | 84 | 69 | 4.0 | 9.0 | 0.00 | 0.00 | 0.00 | 85 | 1011.5 |
| 20260903062004 | 84 | 173 | 4.0 | 9.0 | 0.00 | 0.00 | 0.00 | 85 | 1011.7 |
| 20260903061902 | 84 | 227 | 4.0 | 9.0 | 0.00 | 0.00 | 0.00 | 85 | 1011.7 |
| 20260903061802 | 84 | 166 | 4.0 | 9.0 | 0.00 | 0.00 | 0.00 | 85 | 1011.7 |
| 20260903061702 | 84 | 183 | 4.0 | 9.0 | 0.00 | 0.00 | 0.00 | 85 | 1011.7 |
| 20260903061602 | 84 | 192 | 5.0 | 9.0 | 0.00 | 0.00 | 0.00 | 85 | 1011.8 |
| 20260903061505 | 84 | 154 | 5.0 | 7.0 | 0.00 | 0.00 | 0.00 | 85 | 1011.8 |
| 20260903061402 | 84 | 166 | 4.0 | 6.0 | 0.00 | 0.00 | 0.00 | 85 | 1011.9 |
| 20260903061302 | 84 | 206 | 4.0 | 6.0 | 0.00 | 0.00 | 0.00 | 85 | 1011.9 |
| 20260903061203 | 84 | 192 | 4.0 | 6.0 | 0.00 | 0.00 | 0.00 | 85 | 1012.0 |
| 20260903061102 | 84 | 121 | 4.0 | 6.0 | 0.00 | 0.00 | 0.00 | 85 | 1011.9 |
| 20260903061003 | 84 | 197 | 2.0 | 6.0 | 0.00 | 0.00 | 0.00 | 85 | 1012.0 |
| 20260903060903 | 85 | 197 | 1.0 | 6.0 | 0.00 | 0.00 | 0.00 | 85 | 1012.1 |
| 20260903060803 | 85 | 219 | 2.0 | 6.0 | 0.00 | 0.00 | 0.00 | 85 | 1012.2 |
| 20260903060702 | 85 | 148 | 2.0 | 6.0 | 0.00 | 0.00 | 0.00 | 85 | 1012.1 |
| 20260903060603 | 85 | 202 | 2.0 | 6.0 | 0.00 | 0.00 | 0.00 | 85 | 1012.1 |
| 20260903060503 | 85 | 185 | 3.0 | 6.0 | 0.00 | 0.00 | 0.00 | 85 | 1012.1 |
| 20260903060403 | 85 | 197 | 2.0 | 6.0 | 0.00 | 0.00 | 0.00 | 85 | 1012.2 |
| 20260903060303 | 85 | 80 | 2.0 | 6.0 | 0.00 | 0.00 | 0.00 | 85 | 1012.2 |
| 20260903060202 | 85 | 188 | 2.0 | 6.0 | 0.00 | 0.00 | 0.00 | 85 | 1012.3 |
| 20260903060104 | 85 | 149 | 3.0 | 6.0 | 0.00 | 0.00 | 0.00 | 85 | 1012.3 |
| 20260903060003 | 85 | 200 | 3.0 | 6.0 | 0.00 | 0.00 | 0.00 | 85 | 1012.3 |
| 20260903055902 | 85 | 186 | 3.0 | 6.0 | 0.00 | 0.00 | 0.00 | 85 | 1012.3 |
| 20260903055803 | 85 | 164 | 2.0 | 6.0 | 0.00 | 0.00 | 0.00 | 85 | 1012.3 |
| 20260903055702 | 85 | 185 | 3.0 | 7.0 | 0.00 | 0.00 | 0.00 | 85 | 1012.3 |
| 20260903055603 | 85 | 203 | 3.0 | 7.0 | 0.00 | 0.00 | 0.00 | 85 | 1012.3 |
| 20260903055502 | 85 | 180 | 4.0 | 7.0 | 0.00 | 0.00 | 0.00 | 85 | 1012.3 |
| 20260903055403 | 85 | 147 | 4.0 | 10.0 | 0.00 | 0.00 | 0.00 | 85 | 1012.4 |
| 20260903055306 | 85 | 183 | 4.0 | 10.0 | 0.00 | 0.00 | 0.00 | 85 | 1012.3 |
| 20260903055202 | 85 | 189 | 4.0 | 10.0 | 0.00 | 0.00 | 0.00 | 85 | 1012.3 |
| 20260903055103 | 85 | 180 | 3.0 | 10.0 | 0.00 | 0.00 | 0.00 | 85 | 1012.4 |
| 20260903055002 | 85 | 188 | 3.0 | 10.0 | 0.00 | 0.00 | 0.00 | 85 | 1012.3 |
| 20260903054902 | 85 | 193 | 4.0 | 10.0 | 0.00 | 0.00 | 0.00 | 85 | 1012.4 |
| 20260903054803 | 85 | 189 | 4.0 | 10.0 | 0.00 | 0.00 | 0.00 | 85 | 1012.4 |
| 20260903054702 | 85 | 149 | 5.0 | 10.0 | 0.00 | 0.00 | 0.00 | 85 | 1012.4 |
| 20260903054602 | 85 | 152 | 5.0 | 10.0 | 0.00 | 0.00 | 0.00 | 85 | 1012.4 |
| 20260903054503 | 85 | 175 | 5.0 | 10.0 | 0.00 | 0.00 | 0.00 | 85 | 1012.5 |
| 20260903054405 | 85 | 172 | 5.0 | 10.0 | 0.00 | 0.00 | 0.00 | 85 | 1012.5 |
| 20260903054303 | 85 | 186 | 4.0 | 10.0 | 0.00 | 0.00 | 0.00 | 85 | 1012.5 |
| 20260903054202 | 85 | 166 | 4.0 | 10.0 | 0.00 | 0.00 | 0.00 | 85 | 1012.5 |
| 20260903054103 | 85 | 188 | 5.0 | 12.0 | 0.00 | 0.00 | 0.00 | 85 | 1012.5 |
| 20260903054003 | 85 | 176 | 5.0 | 12.0 | 0.00 | 0.00 | 0.00 | 85 | 1012.5 |
| 20260903053902 | 85 | 199 | 4.0 | 12.0 | 0.00 | 0.00 | 0.00 | 85 | 1012.5 |
| 20260903053803 | 85 | 223 | 3.0 | 12.0 | 0.00 | 0.00 | 0.00 | 85 | 1012.6 |
| 20260903053703 | 85 | 207 | 4.0 | 12.0 | 0.00 | 0.00 | 0.00 | 85 | 1012.5 |
| 20260903053602 | 85 | 175 | 4.0 | 12.0 | 0.00 | 0.00 | 0.00 | 85 | 1012.5 |
| 20260903053504 | 85 | 224 | 4.0 | 12.0 | 0.00 | 0.00 | 0.00 | 85 | 1012.6 |
| 20260903053405 | 85 | 227 | 4.0 | 12.0 | 0.00 | 0.00 | 0.00 | 85 | 1012.6 |
| 20260903053302 | 85 | 183 | 6.0 | 12.0 | 0.00 | 0.00 | 0.00 | 85 | 1012.5 |
| 20260903053202 | 85 | 195 | 6.0 | 12.0 | 0.00 | 0.00 | 0.00 | 85 | 1012.5 |
| 20260903053102 | 85 | 214 | 5.0 | 9.0 | 0.00 | 0.00 | 0.00 | 85 | 1012.4 |
| 20260903053003 | 85 | 183 | 5.0 | 9.0 | 0.00 | 0.00 | 0.00 | 85 | 1012.5 |
| 20260903052902 | 85 | 197 | 4.0 | 9.0 | 0.00 | 0.00 | 0.00 | 85 | 1012.5 |
| 20260903052802 | 85 | 172 | 3.0 | 10.0 | 0.00 | 0.00 | 0.00 | 85 | 1012.3 |
| 20260903052703 | 85 | 197 | 2.0 | 10.0 | 0.00 | 0.00 | 0.00 | 85 | 1012.4 |
| 20260903052603 | 85 | 183 | 2.0 | 10.0 | 0.00 | 0.00 | 0.00 | 85 | 1012.4 |
| 20260903052504 | 85 | 165 | 3.0 | 10.0 | 0.00 | 0.00 | 0.00 | 85 | 1012.4 |
| 20260903052403 | 85 | 178 | 3.0 | 10.0 | 0.00 | 0.00 | 0.00 | 85 | 1012.4 |
| 20260903052306 | 85 | 162 | 3.0 | 10.0 | 0.00 | 0.00 | 0.00 | 85 | 1012.4 |
| 20260903052202 | 85 | 165 | 3.0 | 10.0 | 0.00 | 0.00 | 0.00 | 85 | 1012.4 |
| 20260903052102 | 85 | 164 | 3.0 | 10.0 | 0.00 | 0.00 | 0.00 | 85 | 1012.4 |
| 20260903052003 | 85 | 186 | 4.0 | 10.0 | 0.00 | 0.00 | 0.00 | 85 | 1012.4 |
| 20260903051902 | 85 | 133 | 6.0 | 10.0 | 0.00 | 0.00 | 0.00 | 85 | 1012.4 |
| 20260903051802 | 85 | 171 | 5.0 | 10.0 | 0.00 | 0.00 | 0.00 | 85 | 1012.5 |
| 20260903051703 | 85 | 148 | 4.0 | 9.0 | 0.00 | 0.00 | 0.00 | 85 | 1012.4 |
| 20260903051602 | 85 | 207 | 4.0 | 9.0 | 0.00 | 0.00 | 0.00 | 85 | 1012.5 |
| 20260903051500 | 85 | 166 | 4.0 | 9.0 | 0.00 | 0.00 | 0.00 | 85 | 1012.4 |
| 20260903051358 | 85 | 186 | 4.0 | 9.0 | 0.00 | 0.00 | 0.00 | 85 | 1012.4 |
| 20260903051257 | 85 | 182 | 4.0 | 7.0 | 0.00 | 0.00 | 0.00 | 85 | 1012.4 |
| 20260903051155 | 85 | 111 | 4.0 | 7.0 | 0.00 | 0.00 | 0.00 | 85 | 1012.4 |
| 20260903051054 | 85 | 197 | 3.0 | 7.0 | 0.00 | 0.00 | 0.00 | 85 | 1012.4 |
| 20260903050954 | 85 | 188 | 2.0 | 7.0 | 0.00 | 0.00 | 0.00 | 85 | 1012.4 |
| 20260903050851 | 85 | 202 | 4.0 | 7.0 | 0.00 | 0.00 | 0.00 | 85 | 1012.3 |
| 20260903050751 | 85 | 224 | 4.0 | 7.0 | 0.00 | 0.00 | 0.00 | 85 | 1012.4 |
| 20260903050648 | 85 | 190 | 4.0 | 7.0 | 0.00 | 0.00 | 0.00 | 85 | 1012.4 |
| 20260903050547 | 85 | 176 | 4.0 | 7.0 | 0.00 | 0.00 | 0.00 | 85 | 1012.4 |
| 20260903050443 | 85 | 203 | 3.0 | 7.0 | 0.00 | 0.00 | 0.00 | 85 | 1012.4 |
| 20260903050340 | 85 | 192 | 3.0 | 7.0 | 0.00 | 0.00 | 0.00 | 85 | 1012.4 |
| 20260903050237 | 85 | 189 | 3.0 | 9.0 | 0.00 | 0.00 | 0.00 | 85 | 1012.4 |
| 20260903050137 | 85 | 206 | 3.0 | 9.0 | 0.00 | 0.00 | 0.00 | 85 | 1012.4 |
| 20260903050035 | 85 | 180 | 4.0 | 9.0 | 0.00 | 0.00 | 0.00 | 85 | 1012.4 |
| 20260903045932 | 85 | 189 | 4.0 | 9.0 | 0.00 | 0.00 | 0.00 | 85 | 1012.5 |
| 20260903045831 | 85 | 182 | 4.0 | 9.0 | 0.00 | 0.00 | 0.00 | 85 | 1012.5 |
| 20260903045731 | 85 | 155 | 3.0 | 9.0 | 0.00 | 0.00 | 0.00 | 85 | 1012.4 |
| 20260903045631 | 85 | 207 | 2.0 | 11.0 | 0.00 | 0.00 | 0.00 | 85 | 1012.4 |
| 20260903045532 | 85 | 175 | 4.0 | 11.0 | 0.00 | 0.00 | 0.00 | 85 | 1012.5 |
| 20260903045431 | 85 | 185 | 5.0 | 11.0 | 0.00 | 0.00 | 0.00 | 85 | 1012.4 |
| 20260903045331 | 85 | 169 | 4.0 | 11.0 | 0.00 | 0.00 | 0.00 | 85 | 1012.4 |
| 20260903045233 | 85 | 171 | 3.0 | 11.0 | 0.00 | 0.00 | 0.00 | 85 | 1012.4 |
| 20260903045131 | 85 | 159 | 4.0 | 11.0 | 0.00 | 0.00 | 0.00 | 85 | 1012.4 |
| 20260903045031 | 85 | 149 | 5.0 | 11.0 | 0.00 | 0.00 | 0.00 | 85 | 1012.4 |
| 20260903044931 | 85 | 85 | 4.0 | 11.0 | 0.00 | 0.00 | 0.00 | 85 | 1012.5 |
| 20260903044832 | 85 | 206 | 5.0 | 11.0 | 0.00 | 0.00 | 0.00 | 85 | 1012.5 |
| 20260903044730 | 85 | 203 | 6.0 | 11.0 | 0.00 | 0.00 | 0.00 | 85 | 1012.5 |
| 20260903044629 | 85 | 197 | 4.0 | 9.0 | 0.00 | 0.00 | 0.00 | 85 | 1012.5 |
| 20260903044527 | 85 | 154 | 2.0 | 9.0 | 0.00 | 0.00 | 0.00 | 85 | 1012.5 |
| 20260903044426 | 85 | 165 | 3.0 | 12.0 | 0.00 | 0.00 | 0.00 | 85 | 1012.5 |
| 20260903044325 | 85 | 186 | 4.0 | 12.0 | 0.00 | 0.00 | 0.00 | 85 | 1012.5 |
| 20260903044224 | 85 | 196 | 3.0 | 12.0 | 0.00 | 0.00 | 0.00 | 85 | 1012.4 |
| 20260903044123 | 85 | 219 | 3.0 | 12.0 | 0.00 | 0.00 | 0.00 | 86 | 1012.5 |
| 20260903044019 | 85 | 193 | 4.0 | 12.0 | 0.00 | 0.00 | 0.00 | 85 | 1012.4 |
| 20260903043918 | 85 | 152 | 4.0 | 12.0 | 0.00 | 0.00 | 0.00 | 86 | 1012.4 |
| 20260903043818 | 85 | 149 | 3.0 | 12.0 | 0.00 | 0.00 | 0.00 | 86 | 1012.4 |
| 20260903043716 | 85 | 185 | 4.0 | 12.0 | 0.00 | 0.00 | 0.00 | 86 | 1012.4 |
| 20260903043615 | 85 | 197 | 6.0 | 12.0 | 0.00 | 0.00 | 0.00 | 86 | 1012.4 |
| 20260903043512 | 85 | 213 | 6.0 | 12.0 | 0.00 | 0.00 | 0.00 | 86 | 1012.4 |
| 20260903043410 | 85 | 140 | 5.0 | 10.0 | 0.00 | 0.00 | 0.00 | 86 | 1012.4 |
| 20260903043305 | 85 | 123 | 4.0 | 9.0 | 0.00 | 0.00 | 0.00 | 86 | 1012.3 |
| 20260903043204 | 85 | 154 | 3.0 | 6.0 | 0.00 | 0.00 | 0.00 | 86 | 1012.4 |
| 20260903043103 | 85 | 130 | 3.0 | 6.0 | 0.00 | 0.00 | 0.00 | 86 | 1012.4 |
| 20260903043005 | 85 | 161 | 3.0 | 6.0 | 0.00 | 0.00 | 0.00 | 86 | 1012.4 |
| 20260903042904 | 85 | 162 | 3.0 | 6.0 | 0.00 | 0.00 | 0.00 | 86 | 1012.4 |
| 20260903042803 | 85 | 121 | 3.0 | 9.0 | 0.00 | 0.00 | 0.00 | 86 | 1012.4 |
| 20260903042703 | 85 | 116 | 3.0 | 9.0 | 0.00 | 0.00 | 0.00 | 86 | 1012.3 |
| 20260903042605 | 85 | 127 | 3.0 | 9.0 | 0.00 | 0.00 | 0.00 | 86 | 1012.4 |
| 20260903042504 | 85 | 114 | 2.0 | 9.0 | 0.00 | 0.00 | 0.00 | 86 | 1012.4 |
| 20260903042401 | 85 | 118 | 2.0 | 9.0 | 0.00 | 0.00 | 0.00 | 86 | 1012.4 |
| 20260903042305 | 85 | 149 | 2.0 | 10.0 | 0.00 | 0.00 | 0.00 | 86 | 1012.4 |
| 20260903042203 | 85 | 109 | 2.0 | 10.0 | 0.00 | 0.00 | 0.00 | 86 | 1012.4 |
| 20260903042102 | 85 | 131 | 3.0 | 10.0 | 0.00 | 0.00 | 0.00 | 86 | 1012.4 |
| 20260903042003 | 85 | 99 | 4.0 | 10.0 | 0.00 | 0.00 | 0.00 | 86 | 1012.5 |
| 20260903041903 | 85 | 159 | 4.0 | 10.0 | 0.00 | 0.00 | 0.00 | 86 | 1012.4 |
| 20260903041803 | 85 | 155 | 3.0 | 10.0 | 0.00 | 0.00 | 0.00 | 85 | 1012.5 |
| 20260903041702 | 85 | 89 | 4.0 | 10.0 | 0.00 | 0.00 | 0.00 | 85 | 1012.4 |
| 20260903041602 | 85 | 34 | 5.0 | 10.0 | 0.00 | 0.00 | 0.00 | 85 | 1012.4 |
| 20260903041503 | 85 | 141 | 4.0 | 10.0 | 0.00 | 0.00 | 0.00 | 85 | 1012.5 |
| 20260903041402 | 85 | 134 | 4.0 | 10.0 | 0.00 | 0.00 | 0.00 | 85 | 1012.5 |
| 20260903041302 | 85 | 189 | 4.0 | 10.0 | 0.00 | 0.00 | 0.00 | 85 | 1012.5 |
| 20260903041204 | 85 | 161 | 3.0 | 10.0 | 0.00 | 0.00 | 0.00 | 85 | 1012.4 |
| 20260903041102 | 85 | 161 | 3.0 | 10.0 | 0.00 | 0.00 | 0.00 | 85 | 1012.4 |
| 20260903041002 | 85 | 178 | 3.0 | 10.0 | 0.00 | 0.00 | 0.00 | 85 | 1012.4 |
| 20260903040902 | 85 | 134 | 4.0 | 10.0 | 0.00 | 0.00 | 0.00 | 85 | 1012.5 |
| 20260903040804 | 85 | 213 | 4.0 | 10.0 | 0.00 | 0.00 | 0.00 | 85 | 1012.4 |
| 20260903040702 | 85 | 192 | 5.0 | 10.0 | 0.00 | 0.00 | 0.00 | 85 | 1012.3 |
| 20260903040602 | 85 | 118 | 4.0 | 10.0 | 0.00 | 0.00 | 0.00 | 85 | 1012.4 |
| 20260903040504 | 85 | 109 | 4.0 | 10.0 | 0.00 | 0.00 | 0.00 | 85 | 1012.4 |
| 20260903040402 | 85 | 142 | 5.0 | 10.0 | 0.00 | 0.00 | 0.00 | 85 | 1012.3 |
| 20260903040302 | 85 | 102 | 5.0 | 10.0 | 0.00 | 0.00 | 0.00 | 85 | 1012.3 |
| 20260903040203 | 85 | 140 | 5.0 | 10.0 | 0.00 | 0.00 | 0.00 | 85 | 1012.4 |
| 20260903040103 | 85 | 207 | 5.0 | 10.0 | 0.00 | 0.00 | 0.00 | 85 | 1012.4 |
| 20260903040003 | 85 | 159 | 5.0 | 10.0 | 0.00 | 0.00 | 0.00 | 85 | 1012.4 |
| 20260903035902 | 85 | 109 | 4.0 | 11.0 | 0.00 | 0.00 | 0.00 | 85 | 1012.3 |
| 20260903035802 | 85 | 175 | 4.0 | 11.0 | 0.00 | 0.00 | 0.00 | 85 | 1012.4 |
| 20260903035702 | 85 | 131 | 4.0 | 11.0 | 0.00 | 0.00 | 0.00 | 85 | 1012.3 |
| 20260903035603 | 85 | 149 | 4.0 | 11.0 | 0.00 | 0.00 | 0.00 | 85 | 1012.4 |
| 20260903035504 | 85 | 145 | 5.0 | 11.0 | 0.00 | 0.00 | 0.00 | 85 | 1012.3 |
| 20260903035403 | 85 | 110 | 5.0 | 11.0 | 0.00 | 0.00 | 0.00 | 85 | 1012.3 |
| 20260903035306 | 85 | 186 | 4.0 | 11.0 | 0.00 | 0.00 | 0.00 | 85 | 1012.3 |
| 20260903035202 | 85 | 165 | 4.0 | 11.0 | 0.00 | 0.00 | 0.00 | 85 | 1012.3 |
| 20260903035103 | 85 | 103 | 4.0 | 11.0 | 0.00 | 0.00 | 0.00 | 85 | 1012.4 |
| 20260903035004 | 85 | 173 | 3.0 | 11.0 | 0.00 | 0.00 | 0.00 | 85 | 1012.3 |
| 20260903034903 | 85 | 149 | 4.0 | 7.0 | 0.00 | 0.00 | 0.00 | 85 | 1012.3 |
| 20260903034803 | 85 | 82 | 3.0 | 7.0 | 0.00 | 0.00 | 0.00 | 85 | 1012.3 |
| 20260903034702 | 85 | 142 | 3.0 | 7.0 | 0.00 | 0.00 | 0.00 | 85 | 1012.3 |
| 20260903034603 | 85 | 140 | 3.0 | 10.0 | 0.00 | 0.00 | 0.00 | 85 | 1012.3 |
| 20260903034504 | 85 | 124 | 4.0 | 10.0 | 0.00 | 0.00 | 0.00 | 85 | 1012.4 |
| 20260903034402 | 85 | 171 | 4.0 | 10.0 | 0.00 | 0.00 | 0.00 | 85 | 1012.4 |
| 20260903034302 | 85 | 113 | 4.0 | 10.0 | 0.00 | 0.00 | 0.00 | 85 | 1012.3 |
| 20260903034202 | 85 | 120 | 4.0 | 10.0 | 0.00 | 0.00 | 0.00 | 85 | 1012.4 |
| 20260903034102 | 85 | 130 | 3.0 | 10.0 | 0.00 | 0.00 | 0.00 | 85 | 1012.4 |
| 20260903034003 | 85 | 120 | 3.0 | 10.0 | 0.00 | 0.00 | 0.00 | 85 | 1012.3 |
| 20260903033902 | 85 | 145 | 4.0 | 10.0 | 0.00 | 0.00 | 0.00 | 85 | 1012.3 |
| 20260903033803 | 85 | 107 | 4.0 | 10.0 | 0.00 | 0.00 | 0.00 | 85 | 1012.3 |
| 20260903033704 | 85 | 127 | 4.0 | 10.0 | 0.00 | 0.00 | 0.00 | 85 | 1012.3 |
| 20260903033603 | 85 | 110 | 4.0 | 10.0 | 0.00 | 0.00 | 0.00 | 85 | 1012.3 |
| 20260903033503 | 85 | 103 | 4.0 | 10.0 | 0.00 | 0.00 | 0.00 | 85 | 1012.3 |
| 20260903033402 | 85 | 120 | 4.0 | 10.0 | 0.00 | 0.00 | 0.00 | 85 | 1012.2 |
| 20260903033302 | 85 | 56 | 4.0 | 10.0 | 0.00 | 0.00 | 0.00 | 85 | 1012.2 |
| 20260903033203 | 85 | 123 | 3.0 | 10.0 | 0.00 | 0.00 | 0.00 | 85 | 1012.3 |
| 20260903033104 | 85 | 152 | 4.0 | 10.0 | 0.00 | 0.00 | 0.00 | 85 | 1012.3 |
| 20260903033004 | 85 | 118 | 5.0 | 10.0 | 0.00 | 0.00 | 0.00 | 85 | 1012.2 |
| 20260903032902 | 85 | 135 | 5.0 | 9.0 | 0.00 | 0.00 | 0.00 | 85 | 1012.2 |
| 20260903032803 | 85 | 149 | 6.0 | 9.0 | 0.00 | 0.00 | 0.00 | 85 | 1012.2 |
| 20260903032703 | 85 | 114 | 6.0 | 9.0 | 0.00 | 0.00 | 0.00 | 85 | 1012.2 |
| 20260903032602 | 85 | 147 | 6.0 | 9.0 | 0.00 | 0.00 | 0.00 | 85 | 1012.2 |
| 20260903032502 | 85 | 154 | 6.0 | 9.0 | 0.00 | 0.00 | 0.00 | 85 | 1012.2 |
| 20260903032403 | 85 | 107 | 5.0 | 9.0 | 0.00 | 0.00 | 0.00 | 85 | 1012.2 |
| 20260903032305 | 85 | 113 | 4.0 | 9.0 | 0.00 | 0.00 | 0.00 | 85 | 1012.2 |
| 20260903032203 | 85 | 94 | 4.0 | 9.0 | 0.00 | 0.00 | 0.00 | 85 | 1012.2 |
| 20260903032103 | 85 | 93 | 5.0 | 9.0 | 0.00 | 0.00 | 0.00 | 85 | 1012.2 |
| 20260903032003 | 85 | 127 | 5.0 | 9.0 | 0.00 | 0.00 | 0.00 | 85 | 1012.1 |
| 20260903031902 | 85 | 114 | 5.0 | 9.0 | 0.00 | 0.00 | 0.00 | 85 | 1012.3 |
| 20260903031802 | 85 | 113 | 5.0 | 9.0 | 0.00 | 0.00 | 0.00 | 85 | 1012.1 |
| 20260903031702 | 85 | 114 | 5.0 | 9.0 | 0.00 | 0.00 | 0.00 | 85 | 1012.2 |
| 20260903031604 | 85 | 114 | 4.0 | 9.0 | 0.00 | 0.00 | 0.00 | 85 | 1012.1 |
| 20260903031502 | 85 | 90 | 4.0 | 9.0 | 0.00 | 0.00 | 0.00 | 85 | 1012.2 |
| 20260903031404 | 85 | 107 | 4.0 | 9.0 | 0.00 | 0.00 | 0.00 | 85 | 1012.1 |
| 20260903031303 | 85 | 116 | 4.0 | 9.0 | 0.00 | 0.00 | 0.00 | 85 | 1012.1 |
| 20260903031202 | 85 | 179 | 5.0 | 10.0 | 0.00 | 0.00 | 0.00 | 85 | 1012.2 |
| 20260903031103 | 85 | 110 | 6.0 | 10.0 | 0.00 | 0.00 | 0.00 | 85 | 1012.1 |
| 20260903031004 | 85 | 111 | 5.0 | 10.0 | 0.00 | 0.00 | 0.00 | 85 | 1012.1 |
| 20260903030903 | 85 | 148 | 4.0 | 10.0 | 0.00 | 0.00 | 0.00 | 85 | 1012.1 |
| 20260903030802 | 85 | 127 | 5.0 | 10.0 | 0.00 | 0.00 | 0.00 | 85 | 1012.0 |
| 20260903030703 | 85 | 100 | 5.0 | 10.0 | 0.00 | 0.00 | 0.00 | 85 | 1012.1 |
| 20260903030602 | 85 | 96 | 4.0 | 12.0 | 0.00 | 0.00 | 0.00 | 85 | 1012.0 |
| 20260903030502 | 85 | 133 | 4.0 | 12.0 | 0.00 | 0.00 | 0.00 | 85 | 1012.0 |
| 20260903030403 | 85 | 80 | 5.0 | 13.0 | 0.00 | 0.00 | 0.00 | 85 | 1012.1 |
| 20260903030303 | 85 | 128 | 5.0 | 13.0 | 0.00 | 0.00 | 0.00 | 85 | 1012.1 |
| 20260903030202 | 85 | 51 | 4.0 | 13.0 | 0.00 | 0.00 | 0.00 | 85 | 1012.1 |
| 20260903030002 | 85 | 159 | 5.0 | 13.0 | 0.00 | 0.00 | 0.00 | 85 | 1012.0 |
| 20260903025902 | 85 | 138 | 5.0 | 13.0 | 0.00 | 0.00 | 0.00 | 85 | 1011.9 |
| 20260903025803 | 85 | 73 | 6.0 | 13.0 | 0.00 | 0.00 | 0.00 | 85 | 1011.9 |
| 20260903025704 | 85 | 134 | 6.0 | 13.0 | 0.00 | 0.00 | 0.00 | 85 | 1012.0 |
| 20260903025602 | 85 | 97 | 6.0 | 13.0 | 0.00 | 0.00 | 0.00 | 85 | 1011.9 |
| 20260903025502 | 85 | 186 | 6.0 | 13.0 | 0.00 | 0.00 | 0.00 | 85 | 1012.0 |
| 20260903025402 | 85 | 157 | 4.0 | 9.0 | 0.00 | 0.00 | 0.00 | 85 | 1011.9 |
| 20260903025301 | 85 | 130 | 5.0 | 9.0 | 0.00 | 0.00 | 0.00 | 85 | 1012.0 |
| 20260903025202 | 85 | 149 | 5.0 | 9.0 | 0.00 | 0.00 | 0.00 | 85 | 1011.8 |
| 20260903025102 | 85 | 109 | 4.0 | 9.0 | 0.00 | 0.00 | 0.00 | 85 | 1012.0 |
| 20260903025003 | 85 | 86 | 4.0 | 7.0 | 0.00 | 0.00 | 0.00 | 84 | 1011.9 |
| 20260903024902 | 85 | 151 | 4.0 | 7.0 | 0.00 | 0.00 | 0.00 | 84 | 1011.9 |
| 20260903024801 | 84 | 123 | 3.0 | 7.0 | 0.00 | 0.00 | 0.00 | 84 | 1011.9 |
| 20260903024703 | 84 | 111 | 4.0 | 7.0 | 0.00 | 0.00 | 0.00 | 84 | 1011.9 |
| 20260903024602 | 84 | 138 | 4.0 | 7.0 | 0.00 | 0.00 | 0.00 | 84 | 1012.0 |
| 20260903024501 | 84 | 110 | 3.0 | 5.0 | 0.00 | 0.00 | 0.00 | 83 | 1011.9 |
| 20260903024402 | 84 | 111 | 3.0 | 5.0 | 0.00 | 0.00 | 0.00 | 83 | 1011.9 |
| 20260903024303 | 84 | 110 | 3.0 | 6.0 | 0.00 | 0.00 | 0.00 | 83 | 1011.9 |
| 20260903024203 | 84 | 99 | 3.0 | 6.0 | 0.00 | 0.00 | 0.00 | 83 | 1011.9 |
| 20260903024103 | 84 | 117 | 3.0 | 6.0 | 0.00 | 0.00 | 0.00 | 83 | 1012.0 |
| 20260903024003 | 84 | 97 | 3.0 | 6.0 | 0.00 | 0.00 | 0.00 | 83 | 1011.9 |
| 20260903023902 | 83 | 97 | 3.0 | 6.0 | 0.00 | 0.00 | 0.00 | 83 | 1011.9 |
| 20260903023802 | 83 | 97 | 3.0 | 6.0 | 0.00 | 0.00 | 0.00 | 83 | 1011.9 |
| 20260903023702 | 83 | 79 | 3.0 | 6.0 | 0.00 | 0.00 | 0.00 | 83 | 1011.8 |
| 20260903023604 | 83 | 79 | 3.0 | 6.0 | 0.00 | 0.00 | 0.00 | 83 | 1011.8 |
| 20260903023502 | 83 | 78 | 4.0 | 6.0 | 0.00 | 0.00 | 0.00 | 83 | 1011.7 |
| 20260903023402 | 83 | 106 | 5.0 | 6.0 | 0.00 | 0.00 | 0.00 | 83 | 1011.7 |
| 20260903023303 | 83 | 120 | 4.0 | 6.0 | 0.00 | 0.00 | 0.00 | 83 | 1011.7 |
| 20260903023202 | 83 | 130 | 4.0 | 6.0 | 0.00 | 0.00 | 0.00 | 83 | 1011.6 |
| 20260903023102 | 83 | 110 | 3.0 | 5.0 | 0.00 | 0.00 | 0.00 | 83 | 1011.6 |
| 20260903023003 | 83 | 107 | 3.0 | 5.0 | 0.00 | 0.00 | 0.00 | 83 | 1011.5 |
| 20260903022903 | 83 | 89 | 2.0 | 5.0 | 0.00 | 0.00 | 0.00 | 83 | 1011.6 |
| 20260903022802 | 83 | 137 | 2.0 | 5.0 | 0.00 | 0.00 | 0.00 | 83 | 1011.5 |
| 20260903022702 | 83 | 109 | 2.0 | 5.0 | 0.00 | 0.00 | 0.00 | 83 | 1011.4 |
| 20260903022603 | 83 | 109 | 3.0 | 6.0 | 0.00 | 0.00 | 0.00 | 83 | 1011.6 |
| 20260903022503 | 83 | 109 | 4.0 | 6.0 | 0.00 | 0.00 | 0.00 | 83 | 1011.5 |
| 20260903022402 | 83 | 116 | 4.0 | 6.0 | 0.00 | 0.00 | 0.00 | 83 | 1011.5 |
| 20260903022306 | 83 | 118 | 3.0 | 6.0 | 0.00 | 0.00 | 0.00 | 83 | 1011.5 |
| 20260903022202 | 83 | 99 | 2.0 | 6.0 | 0.00 | 0.00 | 0.00 | 83 | 1011.5 |
| 20260903022104 | 83 | 97 | 3.0 | 6.0 | 0.00 | 0.00 | 0.00 | 83 | 1011.4 |
| 20260903022004 | 83 | 92 | 4.0 | 6.0 | 0.00 | 0.00 | 0.00 | 83 | 1011.4 |
| 20260903021903 | 83 | 92 | 4.0 | 6.0 | 0.00 | 0.00 | 0.00 | 83 | 1011.4 |
| 20260903021802 | 83 | 92 | 5.0 | 6.0 | 0.00 | 0.00 | 0.00 | 83 | 1011.4 |
| 20260903021702 | 83 | 89 | 5.0 | 6.0 | 0.00 | 0.00 | 0.00 | 83 | 1011.4 |
| 20260903021605 | 83 | 82 | 5.0 | 6.0 | 0.00 | 0.00 | 0.00 | 83 | 1011.3 |
| 20260903021503 | 83 | 69 | 5.0 | 6.0 | 0.00 | 0.00 | 0.00 | 83 | 1011.3 |
| 20260903021402 | 83 | 71 | 4.0 | 6.0 | 0.00 | 0.00 | 0.00 | 83 | 1011.3 |
| 20260903021302 | 83 | 59 | 4.0 | 5.0 | 0.00 | 0.00 | 0.00 | 83 | 1011.3 |
| 20260903021203 | 83 | 61 | 4.0 | 5.0 | 0.00 | 0.00 | 0.00 | 83 | 1011.3 |
| 20260903021102 | 82 | 59 | 3.0 | 5.0 | 0.00 | 0.00 | 0.00 | 83 | 1011.4 |
| 20260903021002 | 82 | 76 | 3.0 | 5.0 | 0.00 | 0.00 | 0.00 | 83 | 1011.3 |
| 20260903020903 | 82 | 76 | 3.0 | 6.0 | 0.00 | 0.00 | 0.00 | 83 | 1011.3 |
| 20260903020802 | 82 | 76 | 3.0 | 6.0 | 0.00 | 0.00 | 0.00 | 83 | 1011.3 |
| 20260903020702 | 82 | 76 | 3.0 | 6.0 | 0.00 | 0.00 | 0.00 | 83 | 1011.3 |
| 20260903020603 | 82 | 76 | 3.0 | 6.0 | 0.00 | 0.00 | 0.00 | 83 | 1011.3 |
| 20260903020503 | 82 | 76 | 3.0 | 6.0 | 0.00 | 0.00 | 0.00 | 83 | 1011.2 |
| 20260903020402 | 82 | 85 | 3.0 | 6.0 | 0.00 | 0.00 | 0.00 | 83 | 1011.2 |
| 20260903020302 | 82 | 82 | 3.0 | 6.0 | 0.00 | 0.00 | 0.00 | 83 | 1011.1 |
| 20260903020204 | 82 | 100 | 4.0 | 6.0 | 0.00 | 0.00 | 0.00 | 83 | 1011.1 |
| 20260903020003 | 82 | 107 | 5.0 | 6.0 | 0.00 | 0.00 | 0.00 | 83 | 1011.0 |
| 20260903015904 | 82 | 109 | 4.0 | 5.0 | 0.00 | 0.00 | 0.00 | 83 | 1011.0 |
| 20260903015802 | 82 | 93 | 3.0 | 4.0 | 0.00 | 0.00 | 0.00 | 83 | 1011.0 |
| 20260903015702 | 82 | 106 | 3.0 | 4.0 | 0.00 | 0.00 | 0.00 | 83 | 1011.0 |
| 20260903015601 | 82 | 135 | 2.0 | 4.0 | 0.00 | 0.00 | 0.00 | 83 | 1011.0 |
| 20260903015502 | 82 | 87 | 1.0 | 4.0 | 0.00 | 0.00 | 0.00 | 83 | 1011.0 |
| 20260903015402 | 82 | 120 | 2.0 | 4.0 | 0.00 | 0.00 | 0.00 | 83 | 1011.1 |
| 20260903015305 | 82 | 118 | 3.0 | 4.0 | 0.00 | 0.00 | 0.00 | 83 | 1011.1 |
| 20260903015203 | 82 | 102 | 4.0 | 4.0 | 0.00 | 0.00 | 0.00 | 83 | 1011.2 |
| 20260903015102 | 82 | 66 | 2.0 | 4.0 | 0.00 | 0.00 | 0.00 | 83 | 1011.2 |
| 20260903015003 | 82 | 65 | 2.0 | 4.0 | 0.00 | 0.00 | 0.00 | 83 | 1011.3 |
| 20260903014902 | 82 | 65 | 2.0 | 4.0 | 0.00 | 0.00 | 0.00 | 83 | 1011.3 |
| 20260903014803 | 82 | 65 | 3.0 | 5.0 | 0.00 | 0.00 | 0.00 | 83 | 1011.3 |
| 20260903014702 | 82 | 65 | 3.0 | 5.0 | 0.00 | 0.00 | 0.00 | 83 | 1011.4 |
| 20260903014602 | 82 | 63 | 2.0 | 5.0 | 0.00 | 0.00 | 0.00 | 82 | 1011.4 |
| 20260903014503 | 82 | 63 | 2.0 | 5.0 | 0.00 | 0.00 | 0.00 | 82 | 1011.4 |
| 20260903014403 | 82 | 63 | 3.0 | 6.0 | 0.00 | 0.00 | 0.00 | 82 | 1011.5 |
| 20260903014302 | 82 | 59 | 2.0 | 6.0 | 0.00 | 0.00 | 0.00 | 82 | 1011.5 |
| 20260903014202 | 82 | 59 | 2.0 | 7.0 | 0.00 | 0.00 | 0.00 | 82 | 1011.5 |
| 20260903014103 | 82 | 59 | 3.0 | 7.0 | 0.00 | 0.00 | 0.00 | 82 | 1011.5 |
| 20260903014004 | 82 | 52 | 4.0 | 7.0 | 0.00 | 0.00 | 0.00 | 81 | 1011.5 |
| 20260903013902 | 82 | 51 | 4.0 | 7.0 | 0.00 | 0.00 | 0.00 | 81 | 1011.5 |
| 20260903013803 | 82 | 32 | 3.0 | 10.0 | 0.00 | 0.00 | 0.00 | 81 | 1011.7 |
| 20260903013702 | 82 | 24 | 3.0 | 10.0 | 0.00 | 0.00 | 0.00 | 81 | 1011.6 |
| 20260903013603 | 83 | 37 | 4.0 | 10.0 | 0.00 | 0.00 | 0.00 | 81 | 1011.7 |
| 20260903013503 | 83 | 32 | 5.0 | 10.0 | 0.00 | 0.00 | 0.00 | 80 | 1011.7 |
| 20260903013403 | 83 | 42 | 5.0 | 10.0 | 0.00 | 0.00 | 0.00 | 80 | 1011.7 |
| 20260903013302 | 83 | 30 | 5.0 | 10.0 | 0.00 | 0.00 | 0.00 | 80 | 1011.7 |
| 20260903013202 | 83 | 30 | 5.0 | 10.0 | 0.00 | 0.00 | 0.00 | 80 | 1011.6 |
| 20260903013103 | 83 | 31 | 5.0 | 10.0 | 0.00 | 0.00 | 0.00 | 80 | 1011.6 |
| 20260903013003 | 83 | 41 | 6.0 | 10.0 | 0.00 | 0.00 | 0.00 | 80 | 1011.6 |
| 20260903012902 | 83 | 24 | 6.0 | 10.0 | 0.00 | 0.00 | 0.00 | 79 | 1011.5 |
| 20260903012804 | 83 | 49 | 6.0 | 10.0 | 0.00 | 0.00 | 0.00 | 79 | 1011.4 |
| 20260903012702 | 83 | 28 | 5.0 | 10.0 | 0.00 | 0.00 | 0.00 | 79 | 1011.4 |
| 20260903012602 | 83 | 30 | 5.0 | 10.0 | 0.00 | 0.00 | 0.00 | 79 | 1011.3 |
| 20260903012503 | 83 | 13 | 5.0 | 10.0 | 0.00 | 0.00 | 0.00 | 79 | 1011.2 |
| 20260903012403 | 83 | 25 | 5.0 | 10.0 | 0.00 | 0.00 | 0.00 | 79 | 1011.2 |
| 20260903012302 | 83 | 54 | 5.0 | 11.0 | 0.00 | 0.00 | 0.00 | 79 | 1011.2 |
| 20260903012202 | 83 | 71 | 5.0 | 11.0 | 0.00 | 0.00 | 0.00 | 79 | 1011.2 |
| 20260903012104 | 83 | 52 | 6.0 | 11.0 | 0.00 | 0.00 | 0.00 | 79 | 1011.2 |
| 20260903012002 | 83 | 68 | 7.0 | 12.0 | 0.00 | 0.00 | 0.00 | 78 | 1011.3 |
| 20260903011903 | 83 | 58 | 6.0 | 12.0 | 0.00 | 0.00 | 0.00 | 78 | 1011.3 |
| 20260903011803 | 83 | 58 | 5.0 | 12.0 | 0.00 | 0.00 | 0.00 | 78 | 1011.4 |
| 20260903011703 | 84 | 47 | 6.0 | 15.0 | 0.00 | 0.00 | 0.00 | 78 | 1011.4 |
| 20260903011602 | 84 | 85 | 7.0 | 15.0 | 0.00 | 0.00 | 0.00 | 78 | 1011.3 |
| 20260903011503 | 84 | 49 | 8.0 | 15.0 | 0.00 | 0.00 | 0.00 | 78 | 1011.3 |
| 20260903011404 | 84 | 61 | 7.0 | 16.0 | 0.00 | 0.00 | 0.00 | 78 | 1011.3 |
| 20260903011303 | 84 | 49 | 6.0 | 16.0 | 0.00 | 0.00 | 0.00 | 77 | 1011.4 |
| 20260903011202 | 84 | 24 | 8.0 | 16.0 | 0.00 | 0.00 | 0.00 | 77 | 1011.3 |
| 20260903011102 | 84 | 49 | 8.0 | 16.0 | 0.00 | 0.00 | 0.00 | 77 | 1011.3 |
| 20260903011003 | 85 | 54 | 6.0 | 16.0 | 0.00 | 0.00 | 0.00 | 76 | 1011.4 |
| 20260903010902 | 85 | 56 | 8.0 | 16.0 | 0.00 | 0.00 | 0.00 | 76 | 1011.4 |
| 20260903010803 | 85 | 39 | 9.0 | 16.0 | 0.00 | 0.00 | 0.00 | 76 | 1011.4 |
| 20260903010704 | 85 | 49 | 10.0 | 16.0 | 0.00 | 0.00 | 0.00 | 76 | 1011.5 |
| 20260903010603 | 85 | 39 | 12.0 | 16.0 | 0.00 | 0.00 | 0.00 | 76 | 1011.4 |
| 20260903010502 | 85 | 27 | 11.0 | 16.0 | 0.00 | 0.00 | 0.00 | 76 | 1011.4 |
| 20260903010403 | 85 | 48 | 10.0 | 16.0 | 0.00 | 0.00 | 0.00 | 76 | 1011.3 |
| 20260903010302 | 86 | 7 | 9.0 | 13.0 | 0.00 | 0.00 | 0.00 | 76 | 1011.3 |
| 20260903010201 | 86 | 24 | 9.0 | 13.0 | 0.00 | 0.00 | 0.00 | 76 | 1011.2 |
| 20260903010004 | 86 | 41 | 9.0 | 13.0 | 0.00 | 0.00 | 0.00 | 76 | 1010.9 |
| 20260903005904 | 86 | 85 | 9.0 | 13.0 | 0.00 | 0.00 | 0.00 | 76 | 1010.9 |
| 20260903005802 | 86 | 71 | 8.0 | 13.0 | 0.00 | 0.00 | 0.00 | 76 | 1010.9 |
| 20260903005703 | 86 | 89 | 7.0 | 12.0 | 0.00 | 0.00 | 0.00 | 75 | 1010.9 |
| 20260903005603 | 86 | 100 | 7.0 | 12.0 | 0.00 | 0.00 | 0.00 | 75 | 1010.9 |
| 20260903005503 | 86 | 62 | 5.0 | 14.0 | 0.00 | 0.00 | 0.00 | 75 | 1010.8 |
| 20260903005403 | 86 | 68 | 5.0 | 14.0 | 0.00 | 0.00 | 0.00 | 74 | 1010.7 |
| 20260903005306 | 86 | 62 | 5.0 | 14.0 | 0.00 | 0.00 | 0.00 | 74 | 1010.7 |
| 20260903005203 | 86 | 68 | 6.0 | 14.0 | 0.00 | 0.00 | 0.00 | 73 | 1010.6 |
| 20260903005102 | 86 | 56 | 8.0 | 14.0 | 0.00 | 0.00 | 0.00 | 73 | 1010.6 |
| 20260903005003 | 86 | 83 | 8.0 | 15.0 | 0.00 | 0.00 | 0.00 | 73 | 1010.4 |
| 20260903004902 | 87 | 34 | 8.0 | 15.0 | 0.00 | 0.00 | 0.00 | 73 | 1010.4 |
| 20260903004803 | 87 | 24 | 8.0 | 15.0 | 0.00 | 0.00 | 0.00 | 72 | 1010.4 |
| 20260903004703 | 87 | 35 | 9.0 | 15.0 | 0.00 | 0.00 | 0.00 | 71 | 1010.4 |
| 20260903004603 | 88 | 37 | 8.0 | 15.0 | 0.00 | 0.00 | 0.00 | 71 | 1010.4 |
| 20260903004502 | 88 | 51 | 5.0 | 15.0 | 0.00 | 0.00 | 0.00 | 70 | 1010.4 |
| 20260903004402 | 89 | 75 | 5.0 | 15.0 | 0.00 | 0.00 | 0.00 | 69 | 1010.5 |
| 20260903004303 | 89 | 52 | 9.0 | 15.0 | 0.00 | 0.00 | 0.00 | 68 | 1010.4 |
| 20260903004202 | 89 | 37 | 10.0 | 15.0 | 0.00 | 0.00 | 0.00 | 68 | 1010.5 |
| 20260903004103 | 89 | 38 | 9.0 | 15.0 | 0.00 | 0.00 | 0.00 | 66 | 1010.6 |
| 20260903004003 | 89 | 104 | 8.0 | 13.0 | 0.00 | 0.00 | 0.00 | 66 | 1010.5 |
| 20260903003903 | 89 | 85 | 7.0 | 13.0 | 0.00 | 0.00 | 0.00 | 66 | 1010.5 |
| 20260903003804 | 89 | 86 | 6.0 | 13.0 | 0.00 | 0.00 | 0.00 | 66 | 1010.5 |
| 20260903003705 | 89 | 90 | 4.0 | 11.0 | 0.00 | 0.00 | 0.00 | 66 | 1010.5 |
| 20260903003602 | 89 | 86 | 4.0 | 11.0 | 0.00 | 0.00 | 0.00 | 66 | 1010.6 |
| 20260903003502 | 89 | 97 | 4.0 | 11.0 | 0.00 | 0.00 | 0.00 | 66 | 1010.6 |
| 20260903003403 | 90 | 120 | 4.0 | 11.0 | 0.00 | 0.00 | 0.00 | 65 | 1010.6 |
| 20260903003304 | 90 | 196 | 4.0 | 11.0 | 0.00 | 0.00 | 0.00 | 65 | 1010.6 |
| 20260903003203 | 90 | 130 | 5.0 | 11.0 | 0.00 | 0.00 | 0.00 | 65 | 1010.6 |
| 20260903003102 | 90 | 42 | 6.0 | 11.0 | 0.00 | 0.00 | 0.00 | 65 | 1010.6 |
| 20260903003005 | 90 | 141 | 6.0 | 11.0 | 0.00 | 0.00 | 0.00 | 65 | 1010.6 |
| 20260903002902 | 90 | 149 | 5.0 | 19.0 | 0.00 | 0.00 | 0.00 | 65 | 1010.6 |
| 20260903002802 | 90 | 175 | 5.0 | 19.0 | 0.00 | 0.00 | 0.00 | 65 | 1010.6 |
| 20260903002702 | 90 | 154 | 5.0 | 19.0 | 0.00 | 0.00 | 0.00 | 65 | 1010.5 |
| 20260903002604 | 90 | 223 | 4.0 | 19.0 | 0.00 | 0.00 | 0.00 | 65 | 1010.4 |
| 20260903002502 | 90 | 102 | 5.0 | 19.0 | 0.00 | 0.00 | 0.00 | 65 | 1010.4 |
| 20260903002402 | 90 | 206 | 5.0 | 19.0 | 0.00 | 0.00 | 0.00 | 65 | 1010.4 |
| 20260903002306 | 90 | 161 | 5.0 | 19.0 | 0.00 | 0.00 | 0.00 | 65 | 1010.3 |
| 20260903002202 | 90 | 237 | 5.0 | 19.0 | 0.00 | 0.00 | 0.00 | 65 | 1010.3 |
| 20260903002102 | 90 | 89 | 6.0 | 19.0 | 0.00 | 0.00 | 0.00 | 65 | 1010.2 |
| 20260903002004 | 90 | 188 | 8.0 | 19.0 | 0.00 | 0.00 | 0.00 | 65 | 1010.2 |
| 20260903001902 | 90 | 111 | 6.0 | 19.0 | 0.00 | 0.00 | 0.00 | 65 | 1010.1 |
| 20260903001803 | 90 | 133 | 6.0 | 19.0 | 0.00 | 0.00 | 0.00 | 65 | 1010.1 |
| 20260903001704 | 90 | 182 | 6.0 | 19.0 | 0.00 | 0.00 | 0.00 | 65 | 1010.1 |
| 20260903001602 | 90 | 162 | 7.0 | 19.0 | 0.00 | 0.00 | 0.00 | 66 | 1010.0 |
| 20260903001502 | 90 | 142 | 7.0 | 19.0 | 0.00 | 0.00 | 0.00 | 66 | 1010.0 |
| 20260903001401 | 90 | 185 | 6.0 | 19.0 | 0.00 | 0.00 | 0.00 | 66 | 1010.0 |
| 20260903001303 | 90 | 76 | 6.0 | 20.0 | 0.00 | 0.00 | 0.00 | 65 | 1009.9 |
| 20260903001203 | 90 | 144 | 9.0 | 20.0 | 0.00 | 0.00 | 0.00 | 65 | 1009.9 |
| 20260903001102 | 90 | 237 | 10.0 | 20.0 | 0.00 | 0.00 | 0.00 | 65 | 1009.8 |
| 20260903001002 | 90 | 189 | 8.0 | 20.0 | 0.00 | 0.00 | 0.00 | 65 | 1009.8 |
| 20260903000902 | 90 | 161 | 8.0 | 20.0 | 0.00 | 0.00 | 0.00 | 65 | 1009.7 |
| 20260903000803 | 90 | 178 | 8.0 | 20.0 | 0.00 | 0.00 | 0.00 | 65 | 1009.7 |
| 20260903000702 | 91 | 173 | 7.0 | 20.0 | 0.00 | 0.00 | 0.00 | 65 | 1009.6 |
| 20260903000603 | 91 | 172 | 7.0 | 20.0 | 0.00 | 0.00 | 0.00 | 66 | 1009.7 |
| 20260903000504 | 91 | 185 | 9.0 | 20.0 | 0.00 | 0.00 | 0.00 | 65 | 1009.6 |
| 20260903000402 | 91 | 152 | 9.0 | 20.0 | 0.00 | 0.00 | 0.00 | 65 | 1009.5 |
| 20260903000303 | 91 | 233 | 9.0 | 17.0 | 0.00 | 0.00 | 0.00 | 65 | 1009.5 |
| 20260903000204 | 91 | 195 | 9.0 | 17.0 | 0.00 | 0.00 | 0.00 | 65 | 1009.3 |
| 20260903000003 | 91 | 152 | 7.0 | 16.0 | 0.00 | 0.00 | 0.00 | 65 | 1009.3 |
| 20260902235903 | 91 | 176 | 5.0 | 16.0 | 0.00 | 0.00 | 0.00 | 65 | 1009.1 |
| 20260902235803 | 91 | 269 | 6.0 | 16.0 | 0.00 | 0.00 | 0.00 | 65 | 1009.2 |
| 20260902235704 | 91 | 99 | 9.0 | 16.0 | 0.00 | 0.00 | 0.00 | 65 | 1009.2 |
| 20260902235603 | 91 | 175 | 10.0 | 16.0 | 0.00 | 0.00 | 0.00 | 65 | 1009.1 |
| 20260902235503 | 91 | 142 | 8.0 | 16.0 | 0.00 | 0.00 | 0.00 | 65 | 1009.2 |
| 20260902235402 | 91 | 171 | 7.0 | 16.0 | 0.00 | 0.00 | 0.00 | 65 | 1009.2 |
| 20260902235305 | 91 | 185 | 8.0 | 16.0 | 0.00 | 0.00 | 0.00 | 64 | 1009.2 |
| 20260902235203 | 91 | 188 | 8.0 | 16.0 | 0.00 | 0.00 | 0.00 | 64 | 1009.1 |
| 20260902235102 | 91 | 103 | 9.0 | 16.0 | 0.00 | 0.00 | 0.00 | 64 | 1009.1 |
| 20260902235003 | 91 | 188 | 7.0 | 16.0 | 0.00 | 0.00 | 0.00 | 64 | 1009.1 |
| 20260902234904 | 92 | 128 | 5.0 | 16.0 | 0.00 | 0.00 | 0.00 | 64 | 1009.1 |
| 20260902234802 | 92 | 152 | 6.0 | 16.0 | 0.00 | 0.00 | 0.00 | 64 | 1009.1 |
| 20260902234701 | 92 | 92 | 6.0 | 16.0 | 0.00 | 0.00 | 0.00 | 64 | 1009.0 |
| 20260902234602 | 92 | 159 | 7.0 | 16.0 | 0.00 | 0.00 | 0.00 | 64 | 1009.0 |
| 20260902234505 | 92 | 159 | 7.0 | 16.0 | 0.00 | 0.00 | 0.00 | 64 | 1008.9 |
| 20260902234402 | 92 | 147 | 6.0 | 16.0 | 0.00 | 0.00 | 0.00 | 64 | 1008.9 |
| 20260902234302 | 92 | 134 | 7.0 | 16.0 | 0.00 | 0.00 | 0.00 | 63 | 1008.9 |
| 20260902234203 | 92 | 188 | 8.0 | 16.0 | 0.00 | 0.00 | 0.00 | 63 | 1008.9 |
| 20260902234103 | 92 | 261 | 8.0 | 16.0 | 0.00 | 0.00 | 0.00 | 63 | 1008.9 |
| 20260902234004 | 92 | 130 | 8.0 | 16.0 | 0.00 | 0.00 | 0.00 | 63 | 1009.0 |
| 20260902233904 | 92 | 164 | 8.0 | 16.0 | 0.00 | 0.00 | 0.00 | 63 | 1009.0 |
| 20260902233803 | 92 | 124 | 7.0 | 16.0 | 0.00 | 0.00 | 0.00 | 63 | 1009.0 |
| 20260902233703 | 92 | 171 | 5.0 | 16.0 | 0.00 | 0.00 | 0.00 | 63 | 1009.1 |
| 20260902233603 | 92 | 168 | 4.0 | 17.0 | 0.00 | 0.00 | 0.00 | 63 | 1009.0 |
| 20260902233505 | 92 | 168 | 6.0 | 17.0 | 0.00 | 0.00 | 0.00 | 63 | 1009.1 |
| 20260902233403 | 92 | 162 | 7.0 | 17.0 | 0.00 | 0.00 | 0.00 | 63 | 1009.1 |
| 20260902233302 | 92 | 116 | 6.0 | 17.0 | 0.00 | 0.00 | 0.00 | 63 | 1009.1 |
| 20260902233203 | 92 | 157 | 7.0 | 17.0 | 0.00 | 0.00 | 0.00 | 62 | 1009.1 |
| 20260902233103 | 92 | 27 | 8.0 | 17.0 | 0.00 | 0.00 | 0.00 | 62 | 1009.1 |
| 20260902233003 | 92 | 134 | 8.0 | 17.0 | 0.00 | 0.00 | 0.00 | 62 | 1009.2 |
| 20260902232903 | 92 | 162 | 9.0 | 17.0 | 0.00 | 0.00 | 0.00 | 62 | 1009.2 |
| 20260902232803 | 92 | 196 | 9.0 | 17.0 | 0.00 | 0.00 | 0.00 | 62 | 1009.3 |
| 20260902232702 | 92 | 164 | 6.0 | 17.0 | 0.00 | 0.00 | 0.00 | 62 | 1009.2 |
| 20260902232602 | 92 | 183 | 4.0 | 16.0 | 0.00 | 0.00 | 0.00 | 62 | 1009.2 |
| 20260902232504 | 92 | 71 | 5.0 | 16.0 | 0.00 | 0.00 | 0.00 | 62 | 1009.3 |
| 20260902232402 | 92 | 154 | 7.0 | 16.0 | 0.00 | 0.00 | 0.00 | 62 | 1009.3 |
| 20260902232302 | 92 | 124 | 7.0 | 16.0 | 0.00 | 0.00 | 0.00 | 62 | 1009.4 |
| 20260902232203 | 93 | 137 | 6.0 | 16.0 | 0.00 | 0.00 | 0.00 | 62 | 1009.4 |
| 20260902232103 | 93 | 255 | 7.0 | 16.0 | 0.00 | 0.00 | 0.00 | 62 | 1009.4 |
| 20260902232004 | 93 | 114 | 7.0 | 16.0 | 0.00 | 0.00 | 0.00 | 62 | 1009.4 |
| 20260902231902 | 93 | 157 | 6.0 | 14.0 | 0.00 | 0.00 | 0.00 | 62 | 1009.5 |
| 20260902231802 | 93 | 207 | 6.0 | 13.0 | 0.00 | 0.00 | 0.00 | 63 | 1009.4 |
| 20260902231703 | 93 | 186 | 6.0 | 13.0 | 0.00 | 0.00 | 0.00 | 63 | 1009.4 |
| 20260902231602 | 93 | 130 | 5.0 | 11.0 | 0.00 | 0.00 | 0.00 | 63 | 1009.4 |
| 20260902231503 | 93 | 109 | 5.0 | 11.0 | 0.00 | 0.00 | 0.00 | 63 | 1009.4 |
| 20260902231402 | 93 | 265 | 4.0 | 11.0 | 0.00 | 0.00 | 0.00 | 63 | 1009.3 |
| 20260902231304 | 93 | 107 | 5.0 | 11.0 | 0.00 | 0.00 | 0.00 | 63 | 1009.3 |
| 20260902231203 | 93 | 179 | 6.0 | 11.0 | 0.00 | 0.00 | 0.00 | 63 | 1009.3 |
| 20260902231104 | 93 | 161 | 6.0 | 13.0 | 0.00 | 0.00 | 0.00 | 63 | 1009.3 |
| 20260902231002 | 93 | 171 | 4.0 | 13.0 | 0.00 | 0.00 | 0.00 | 63 | 1009.2 |
| 20260902230902 | 93 | 180 | 3.0 | 13.0 | 0.00 | 0.00 | 0.00 | 63 | 1009.2 |
| 20260902230803 | 93 | 71 | 5.0 | 13.0 | 0.00 | 0.00 | 0.00 | 63 | 1009.2 |
| 20260902230702 | 93 | 216 | 6.0 | 13.0 | 0.00 | 0.00 | 0.00 | 63 | 1009.3 |
| 20260902230603 | 93 | 137 | 5.0 | 13.0 | 0.00 | 0.00 | 0.00 | 63 | 1009.2 |
| 20260902230502 | 93 | 142 | 5.0 | 13.0 | 0.00 | 0.00 | 0.00 | 63 | 1009.3 |
| 20260902230359 | 93 | 189 | 6.0 | 13.0 | 0.00 | 0.00 | 0.00 | 63 | 1009.2 |
| 20260902230258 | 93 | 162 | 7.0 | 13.0 | 0.00 | 0.00 | 0.00 | 63 | 1009.4 |
| 20260902230155 | 93 | 134 | 6.0 | 13.0 | 0.00 | 0.00 | 0.00 | 63 | 1009.4 |
| 20260902230056 | 93 | 157 | 5.0 | 13.0 | 0.00 | 0.00 | 0.00 | 63 | 1009.3 |
| 20260902225954 | 93 | 179 | 6.0 | 13.0 | 0.00 | 0.00 | 0.00 | 63 | 1009.3 |
| 20260902225856 | 93 | 142 | 6.0 | 16.0 | 0.00 | 0.00 | 0.00 | 63 | 1009.3 |
| 20260902225754 | 93 | 157 | 6.0 | 16.0 | 0.00 | 0.00 | 0.00 | 63 | 1009.1 |
| 20260902225655 | 93 | 131 | 6.0 | 16.0 | 0.00 | 0.00 | 0.00 | 63 | 1009.1 |
| 20260902225556 | 93 | 172 | 6.0 | 16.0 | 0.00 | 0.00 | 0.00 | 63 | 1009.1 |
| 20260902225455 | 93 | 188 | 6.0 | 16.0 | 0.00 | 0.00 | 0.00 | 63 | 1009.0 |
| 20260902225354 | 93 | 144 | 6.0 | 16.0 | 0.00 | 0.00 | 0.00 | 63 | 1009.1 |
| 20260902225254 | 93 | 176 | 6.0 | 16.0 | 0.00 | 0.00 | 0.00 | 63 | 1009.0 |
| 20260902225154 | 93 | 152 | 7.0 | 16.0 | 0.00 | 0.00 | 0.00 | 63 | 1009.0 |
| 20260902225054 | 93 | 235 | 6.0 | 16.0 | 0.00 | 0.00 | 0.00 | 63 | 1009.0 |
| 20260902224955 | 93 | 234 | 6.0 | 16.0 | 0.00 | 0.00 | 0.00 | 62 | 1009.0 |
| 20260902224856 | 93 | 159 | 6.0 | 16.0 | 0.00 | 0.00 | 0.00 | 62 | 1009.0 |
| 20260902224755 | 94 | 175 | 7.0 | 17.0 | 0.00 | 0.00 | 0.00 | 62 | 1009.0 |
| 20260902224655 | 94 | 130 | 7.0 | 17.0 | 0.00 | 0.00 | 0.00 | 62 | 1009.0 |
| 20260902224554 | 94 | 147 | 6.0 | 17.0 | 0.00 | 0.00 | 0.00 | 62 | 1009.0 |
| 20260902224455 | 94 | 133 | 6.0 | 17.0 | 0.00 | 0.00 | 0.00 | 62 | 1009.1 |
| 20260902224354 | 94 | 155 | 7.0 | 17.0 | 0.00 | 0.00 | 0.00 | 62 | 1009.2 |
| 20260902224254 | 94 | 151 | 7.0 | 17.0 | 0.00 | 0.00 | 0.00 | 61 | 1009.1 |
| 20260902224155 | 94 | 149 | 8.0 | 17.0 | 0.00 | 0.00 | 0.00 | 61 | 1009.1 |
| 20260902224054 | 94 | 169 | 9.0 | 17.0 | 0.00 | 0.00 | 0.00 | 61 | 1009.2 |
| 20260902223955 | 94 | 175 | 8.0 | 17.0 | 0.00 | 0.00 | 0.00 | 61 | 1009.2 |
| 20260902223856 | 94 | 128 | 8.0 | 17.0 | 0.00 | 0.00 | 0.00 | 61 | 1009.3 |
| 20260902223754 | 94 | 133 | 6.0 | 13.0 | 0.00 | 0.00 | 0.00 | 61 | 1009.3 |
| 20260902223655 | 94 | 159 | 4.0 | 11.0 | 0.00 | 0.00 | 0.00 | 62 | 1009.3 |
| 20260902223554 | 94 | 137 | 4.0 | 11.0 | 0.00 | 0.00 | 0.00 | 61 | 1009.3 |
| 20260902223455 | 94 | 127 | 4.0 | 11.0 | 0.00 | 0.00 | 0.00 | 62 | 1009.3 |
| 20260902223354 | 94 | 176 | 4.0 | 11.0 | 0.00 | 0.00 | 0.00 | 62 | 1009.3 |
| 20260902223254 | 94 | 97 | 5.0 | 13.0 | 0.00 | 0.00 | 0.00 | 62 | 1009.2 |
| 20260902223155 | 94 | 166 | 5.0 | 14.0 | 0.00 | 0.00 | 0.00 | 61 | 1009.3 |
| 20260902223055 | 94 | 135 | 4.0 | 14.0 | 0.00 | 0.00 | 0.00 | 62 | 1009.3 |
| 20260902222953 | 94 | 149 | 5.0 | 14.0 | 0.00 | 0.00 | 0.00 | 62 | 1009.3 |
| 20260902222854 | 94 | 128 | 6.0 | 14.0 | 0.00 | 0.00 | 0.00 | 61 | 1009.3 |
| 20260902222756 | 94 | 147 | 5.0 | 14.0 | 0.00 | 0.00 | 0.00 | 61 | 1009.3 |
| 20260902222653 | 94 | 149 | 5.0 | 14.0 | 0.00 | 0.00 | 0.00 | 61 | 1009.2 |
| 20260902222554 | 94 | 207 | 6.0 | 14.0 | 0.00 | 0.00 | 0.00 | 61 | 1009.2 |
| 20260902222455 | 94 | 137 | 5.0 | 14.0 | 0.00 | 0.00 | 0.00 | 61 | 1009.3 |
| 20260902222355 | 94 | 82 | 6.0 | 14.0 | 0.00 | 0.00 | 0.00 | 61 | 1009.3 |
| 20260902222253 | 94 | 133 | 6.0 | 14.0 | 0.00 | 0.00 | 0.00 | 61 | 1009.2 |
| 20260902222155 | 94 | 255 | 5.0 | 12.0 | 0.00 | 0.00 | 0.00 | 62 | 1009.4 |
| 20260902222055 | 94 | 128 | 4.0 | 13.0 | 0.00 | 0.00 | 0.00 | 62 | 1009.3 |
| 20260902221954 | 94 | 120 | 4.0 | 13.0 | 0.00 | 0.00 | 0.00 | 61 | 1009.3 |
| 20260902221854 | 94 | 120 | 5.0 | 13.0 | 0.00 | 0.00 | 0.00 | 61 | 1009.4 |
| 20260902221754 | 94 | 141 | 6.0 | 13.0 | 0.00 | 0.00 | 0.00 | 61 | 1009.4 |
| 20260902221654 | 94 | 235 | 5.0 | 13.0 | 0.00 | 0.00 | 0.00 | 61 | 1009.4 |
| 20260902221554 | 94 | 123 | 3.0 | 14.0 | 0.00 | 0.00 | 0.00 | 61 | 1009.4 |
| 20260902221454 | 94 | 157 | 6.0 | 14.0 | 0.00 | 0.00 | 0.00 | 61 | 1009.4 |
| 20260902221355 | 94 | 151 | 6.0 | 14.0 | 0.00 | 0.00 | 0.00 | 61 | 1009.3 |
| 20260902221254 | 94 | 99 | 6.0 | 14.0 | 0.00 | 0.00 | 0.00 | 61 | 1009.3 |
| 20260902221154 | 94 | 154 | 7.0 | 15.0 | 0.00 | 0.00 | 0.00 | 60 | 1009.4 |
| 20260902221056 | 94 | 148 | 6.0 | 15.0 | 0.00 | 0.01 | 0.00 | 61 | 1009.4 |
| 20260902220953 | 94 | 135 | 5.0 | 15.0 | 0.00 | 0.01 | 0.00 | 61 | 1009.4 |
| 20260902220854 | 94 | 121 | 6.0 | 15.0 | 0.00 | 0.01 | 0.00 | 61 | 1009.3 |
| 20260902220753 | 94 | 83 | 9.0 | 15.0 | 0.00 | 0.01 | 0.00 | 60 | 1009.4 |
| 20260902220653 | 94 | 140 | 7.0 | 15.0 | 0.00 | 0.01 | 0.00 | 60 | 1009.4 |
| 20260902220554 | 94 | 121 | 5.0 | 15.0 | 0.00 | 0.01 | 0.00 | 61 | 1009.3 |
| 20260902220453 | 94 | 142 | 6.0 | 15.0 | 0.00 | 0.01 | 0.00 | 61 | 1009.4 |
| 20260902220354 | 94 | 185 | 8.0 | 15.0 | 0.00 | 0.01 | 0.00 | 60 | 1009.3 |
| 20260902220254 | 94 | 176 | 7.0 | 15.0 | 0.00 | 0.01 | 0.00 | 60 | 1009.4 |
| 20260902220153 | 94 | 212 | 6.0 | 15.0 | 0.00 | 0.01 | 0.00 | 60 | 1009.4 |
| 20260902220053 | 94 | 92 | 5.0 | 15.0 | 0.00 | 0.01 | 0.00 | 60 | 1009.4 |
| 20260902215954 | 94 | 172 | 7.0 | 15.0 | 0.00 | 0.01 | 0.00 | 60 | 1009.4 |
| 20260902215854 | 94 | 147 | 8.0 | 15.0 | 0.00 | 0.01 | 0.00 | 60 | 1009.4 |
| 20260902215753 | 94 | 135 | 6.0 | 14.0 | 0.00 | 0.01 | 0.00 | 60 | 1009.4 |
| 20260902215654 | 94 | 169 | 6.0 | 14.0 | 0.00 | 0.01 | 0.00 | 61 | 1009.5 |
| 20260902215554 | 94 | 140 | 6.0 | 14.0 | 0.00 | 0.01 | 0.00 | 61 | 1009.4 |
| 20260902215453 | 94 | 92 | 6.0 | 14.0 | 0.00 | 0.01 | 0.00 | 61 | 1009.4 |
| 20260902215354 | 94 | 120 | 6.0 | 14.0 | 0.00 | 0.01 | 0.00 | 61 | 1009.5 |
| 20260902215254 | 94 | 147 | 7.0 | 14.0 | 0.00 | 0.01 | 0.00 | 61 | 1009.4 |
| 20260902215153 | 94 | 168 | 8.0 | 14.0 | 0.00 | 0.01 | 0.00 | 60 | 1009.4 |
| 20260902215053 | 95 | 172 | 7.0 | 14.0 | 0.00 | 0.01 | 0.00 | 61 | 1009.6 |
| 20260902214955 | 95 | 144 | 6.0 | 14.0 | 0.00 | 0.01 | 0.00 | 61 | 1009.5 |
| 20260902214853 | 94 | 259 | 5.0 | 14.0 | 0.00 | 0.01 | 0.00 | 61 | 1009.6 |
| 20260902214752 | 95 | 141 | 7.0 | 14.0 | 0.00 | 0.01 | 0.00 | 60 | 1009.6 |
| 20260902214654 | 95 | 125 | 7.0 | 14.0 | 0.00 | 0.01 | 0.00 | 60 | 1009.4 |
| 20260902214553 | 95 | 200 | 5.0 | 13.0 | 0.00 | 0.01 | 0.00 | 60 | 1009.4 |
| 20260902214453 | 95 | 173 | 5.0 | 13.0 | 0.00 | 0.01 | 0.00 | 60 | 1009.5 |
| 20260902214353 | 95 | 164 | 7.0 | 13.0 | 0.00 | 0.01 | 0.00 | 60 | 1009.4 |
| 20260902214255 | 95 | 124 | 8.0 | 13.0 | 0.00 | 0.01 | 0.00 | 60 | 1009.4 |
| 20260902214153 | 95 | 171 | 7.0 | 13.0 | 0.00 | 0.01 | 0.00 | 60 | 1009.5 |
| 20260902214053 | 95 | 169 | 5.0 | 14.0 | 0.00 | 0.01 | 0.00 | 61 | 1009.4 |
| 20260902213954 | 95 | 190 | 4.0 | 15.0 | 0.00 | 0.01 | 0.00 | 61 | 1009.4 |
| 20260902213854 | 95 | 175 | 6.0 | 15.0 | 0.00 | 0.01 | 0.00 | 61 | 1009.4 |
| 20260902213754 | 95 | 144 | 6.0 | 15.0 | 0.00 | 0.01 | 0.00 | 61 | 1009.5 |
| 20260902213652 | 95 | 145 | 5.0 | 15.0 | 0.00 | 0.01 | 0.00 | 61 | 1009.4 |
| 20260902213553 | 95 | 226 | 5.0 | 15.0 | 0.00 | 0.01 | 0.00 | 61 | 1009.5 |
| 20260902213454 | 95 | 124 | 4.0 | 15.0 | 0.00 | 0.01 | 0.00 | 61 | 1009.5 |
| 20260902213353 | 95 | 159 | 4.0 | 15.0 | 0.00 | 0.01 | 0.00 | 61 | 1009.5 |
| 20260902213253 | 95 | 193 | 7.0 | 15.0 | 0.00 | 0.01 | 0.00 | 60 | 1009.5 |
| 20260902213154 | 95 | 171 | 9.0 | 15.0 | 0.00 | 0.01 | 0.00 | 60 | 1009.5 |
| 20260902213052 | 95 | 142 | 6.0 | 15.0 | 0.00 | 0.01 | 0.00 | 60 | 1009.5 |
| 20260902212953 | 95 | 92 | 6.0 | 12.0 | 0.00 | 0.01 | 0.00 | 60 | 1009.5 |
| 20260902212853 | 95 | 168 | 5.0 | 12.0 | 0.00 | 0.01 | 0.00 | 60 | 1009.5 |
| 20260902212752 | 96 | 85 | 5.0 | 12.0 | 0.00 | 0.01 | 0.00 | 60 | 1009.5 |
| 20260902212652 | 95 | 166 | 6.0 | 12.0 | 0.00 | 0.01 | 0.00 | 60 | 1009.5 |
| 20260902212553 | 96 | 151 | 5.0 | 13.0 | 0.00 | 0.01 | 0.00 | 60 | 1009.5 |
| 20260902212453 | 96 | 193 | 4.0 | 13.0 | 0.00 | 0.01 | 0.00 | 60 | 1009.6 |
| 20260902212353 | 96 | 83 | 4.0 | 13.0 | 0.00 | 0.01 | 0.00 | 60 | 1009.6 |
| 20260902212253 | 96 | 80 | 6.0 | 13.0 | 0.00 | 0.01 | 0.00 | 60 | 1009.6 |
| 20260902212153 | 96 | 138 | 6.0 | 13.0 | 0.00 | 0.01 | 0.00 | 61 | 1009.6 |
| 20260902212052 | 96 | 110 | 6.0 | 13.0 | 0.00 | 0.01 | 0.00 | 60 | 1009.6 |
| 20260902211952 | 96 | 147 | 6.0 | 13.0 | 0.00 | 0.01 | 0.00 | 60 | 1009.5 |
| 20260902211853 | 96 | 149 | 6.0 | 13.0 | 0.00 | 0.01 | 0.00 | 60 | 1009.6 |
| 20260902211753 | 96 | 192 | 7.0 | 13.0 | 0.00 | 0.01 | 0.00 | 60 | 1009.6 |
| 20260902211652 | 96 | 137 | 6.0 | 13.0 | 0.00 | 0.01 | 0.00 | 60 | 1009.6 |
| 20260902211552 | 96 | 216 | 5.0 | 11.0 | 0.00 | 0.01 | 0.00 | 60 | 1009.6 |
| 20260902211454 | 96 | 197 | 5.0 | 11.0 | 0.00 | 0.01 | 0.00 | 60 | 1009.6 |
| 20260902211352 | 96 | 123 | 6.0 | 11.0 | 0.00 | 0.01 | 0.00 | 59 | 1009.6 |
| 20260902211252 | 96 | 120 | 6.0 | 11.0 | 0.00 | 0.01 | 0.00 | 59 | 1009.8 |
| 20260902211154 | 96 | 155 | 5.0 | 11.0 | 0.00 | 0.01 | 0.00 | 59 | 1009.7 |
| 20260902211053 | 96 | 209 | 5.0 | 12.0 | 0.00 | 0.01 | 0.00 | 59 | 1009.8 |
| 20260902210953 | 96 | 212 | 3.0 | 12.0 | 0.00 | 0.01 | 0.00 | 60 | 1009.8 |
| 20260902210854 | 96 | 188 | 3.0 | 12.0 | 0.00 | 0.01 | 0.00 | 60 | 1009.8 |
| 20260902210753 | 96 | 152 | 4.0 | 12.0 | 0.00 | 0.01 | 0.00 | 60 | 1009.8 |
| 20260902210654 | 96 | 230 | 4.0 | 12.0 | 0.00 | 0.01 | 0.00 | 60 | 1009.8 |
| 20260902210551 | 96 | 106 | 4.0 | 12.0 | 0.00 | 0.01 | 0.00 | 60 | 1009.8 |
| 20260902210453 | 96 | 113 | 6.0 | 12.0 | 0.00 | 0.01 | 0.00 | 60 | 1009.8 |
| 20260902210353 | 96 | 195 | 6.0 | 12.0 | 0.00 | 0.01 | 0.00 | 60 | 1009.8 |
| 20260902210253 | 96 | 94 | 6.0 | 12.0 | 0.00 | 0.01 | 0.00 | 60 | 1009.8 |
| 20260902210154 | 96 | 154 | 6.0 | 12.0 | 0.00 | 0.01 | 0.00 | 60 | 1009.8 |
| 20260902210053 | 95 | 61 | 6.0 | 13.0 | 0.00 | 0.01 | 0.00 | 61 | 1009.7 |
| 20260902205951 | 96 | 130 | 6.0 | 13.0 | 0.00 | 0.01 | 0.00 | 60 | 1009.7 |
| 20260902205851 | 96 | 149 | 5.0 | 13.0 | 0.00 | 0.01 | 0.00 | 60 | 1009.8 |
| 20260902205752 | 96 | 157 | 7.0 | 13.0 | 0.00 | 0.01 | 0.00 | 60 | 1009.8 |
| 20260902205653 | 96 | 103 | 7.0 | 13.0 | 0.00 | 0.01 | 0.00 | 61 | 1009.7 |
| 20260902205552 | 95 | 69 | 6.0 | 13.0 | 0.00 | 0.01 | 0.00 | 60 | 1009.7 |
| 20260902205453 | 95 | 145 | 6.0 | 13.0 | 0.00 | 0.01 | 0.00 | 60 | 1009.7 |
| 20260902205352 | 95 | 114 | 7.0 | 13.0 | 0.00 | 0.01 | 0.00 | 60 | 1009.7 |
| 20260902205251 | 95 | 176 | 7.0 | 13.0 | 0.00 | 0.01 | 0.00 | 60 | 1009.7 |
| 20260902205151 | 95 | 145 | 7.0 | 13.0 | 0.00 | 0.01 | 0.00 | 60 | 1009.6 |
| 20260902205053 | 95 | 121 | 6.0 | 13.0 | 0.00 | 0.01 | 0.00 | 60 | 1009.6 |
| 20260902204952 | 95 | 197 | 6.0 | 12.0 | 0.00 | 0.03 | 0.00 | 60 | 1009.6 |
| 20260902204852 | 95 | 149 | 6.0 | 12.0 | 0.00 | 0.03 | 0.00 | 60 | 1009.6 |
| 20260902204751 | 95 | 161 | 5.0 | 12.0 | 0.00 | 0.03 | 0.00 | 61 | 1009.7 |
| 20260902204652 | 95 | 86 | 5.0 | 12.0 | 0.00 | 0.03 | 0.00 | 60 | 1009.6 |
| 20260902204551 | 95 | 121 | 6.0 | 12.0 | 0.00 | 0.03 | 0.00 | 61 | 1009.7 |
| 20260902204451 | 95 | 48 | 6.0 | 12.0 | 0.00 | 0.03 | 0.00 | 60 | 1009.7 |
| 20260902204352 | 95 | 164 | 6.0 | 12.0 | 0.00 | 0.03 | 0.00 | 60 | 1009.8 |
| 20260902204251 | 95 | 213 | 5.0 | 12.0 | 0.00 | 0.03 | 0.00 | 60 | 1009.8 |
| 20260902204152 | 95 | 179 | 6.0 | 12.0 | 0.00 | 0.03 | 0.00 | 59 | 1009.7 |
| 20260902204053 | 95 | 97 | 6.0 | 12.0 | 0.00 | 0.03 | 0.00 | 59 | 1009.7 |
| 20260902203953 | 96 | 172 | 6.0 | 12.0 | 0.00 | 0.03 | 0.00 | 59 | 1009.9 |
| 20260902203852 | 96 | 172 | 7.0 | 12.0 | 0.00 | 0.03 | 0.00 | 58 | 1009.8 |
| 20260902203752 | 96 | 206 | 6.0 | 12.0 | 0.00 | 0.03 | 0.00 | 57 | 1009.8 |
| 20260902203652 | 96 | 169 | 5.0 | 12.0 | 0.00 | 0.04 | 0.00 | 57 | 1009.9 |
| 20260902203551 | 96 | 169 | 5.0 | 12.0 | 0.00 | 0.04 | 0.00 | 57 | 1009.9 |
| 20260902203451 | 96 | 192 | 6.0 | 12.0 | 0.00 | 0.04 | 0.00 | 57 | 1009.9 |
| 20260902203353 | 96 | 192 | 6.0 | 12.0 | 0.00 | 0.04 | 0.00 | 57 | 1010.0 |
| 20260902203252 | 96 | 219 | 6.0 | 12.0 | 0.00 | 0.04 | 0.00 | 56 | 1010.0 |
| 20260902203151 | 96 | 193 | 5.0 | 12.0 | 0.00 | 0.05 | 0.00 | 56 | 1010.0 |
| 20260902203051 | 96 | 121 | 6.0 | 12.0 | 0.00 | 0.05 | 0.00 | 57 | 1010.1 |
| 20260902202953 | 96 | 189 | 6.0 | 12.0 | 0.00 | 0.05 | 0.00 | 57 | 1010.1 |
| 20260902202851 | 96 | 196 | 6.0 | 13.0 | 0.00 | 0.05 | 0.00 | 57 | 1010.1 |
| 20260902202752 | 96 | 175 | 6.0 | 14.0 | 0.00 | 0.05 | 0.00 | 57 | 1010.1 |